GFSFLT2_700_temp_000.txt.gz
Temp
-0 -0 0 1 1 1 1 1 0 0 0 0 1 -0 -1 -1 -1 -1 -1 -2 -2 -2 -2 -2 -2 -3 -3
0 0 -1 -0 0 0 0 -0 -0 -0 -0 0 0 -0 -1 -1 -1 -1 -2 -1 -2 -1 -3 -2 -3 -3 -3
-1 -1 -1 -1 -1 -1 -0 -0 -1 -1 -1 -0 -0 -0 -1 -1 -2 -2 -2 -2 -3 -2 -3 -2 -3 -3 -4
-3 -2 -2 -2 -2 -1 -1 -1 -1 -1 -1 -1 -1 -1 -1 -0 -1 -2 -2 -2 -2 -2 -3 -3 -4 -4 -4
-4 -4 -2 -2 -3 -2 -2 -2 -2 -2 -2 -1 -2 -1 -1 -1 -2 -1 -2 -2 -2 -2 -3 -3 -4 -4 -4
-4 -4 -3 -3 -4 -3 -3 -3 -2 -1 -2 -2 -2 -2 -1 -2 -1 -2 -2 -3 -3 -3 -3 -3 -4 -4 -5
-5 -4 -4 -3 -4 -4 -4 -3 -2 -2 -2 -2 -2 -2 -2 -2 -2 -3 -3 -3 -3 -3 -3 -4 -4 -5 -5
-5 -4 -4 -4 -4 -4 -4 -4 -3 -3 -3 -2 -2 -2 -2 -3 -2 -3 -4 -3 -3 -4 -4 -4 -5 -5 -6
-5 -4 -4 -5 -5 -5 -5 -4 -4 -3 -3 -2 -3 -3 -2 -3 -3 -4 -4 -4 -4 -4 -4 -5 -5 -6 -7
-5 -4 -5 -5 -5 -5 -4 -4 -4 -3 -3 -3 -3 -3 -3 -3 -3 -4 -4 -4 -5 -5 -5 -6 -6 -7 -7
-5 -5 -4 -4 -4 -4 -4 -4 -4 -4 -3 -4 -3 -3 -3 -3 -4 -4 -4 -5 -5 -5 -6 -6 -6 -7 -7
-6 -5 -6 -5 -5 -5 -4 -4 -4 -3 -3 -3 -3 -3 -4 -4 -4 -4 -5 -6 -6 -6 -6 -7 -7 -7 -8
-6 -6 -6 -6 -5 -5 -4 -4 -4 -3 -4 -4 -4 -5 -5 -5 -5 -5 -6 -6 -6 -7 -7 -7 -8 -8 -8
-6 -6 -6 -6 -6 -5 -4 -5 -5 -5 -5 -6 -5 -5 -5 -5 -6 -7 -6 -6 -7 -8 -8 -8 -8 -8 -9
-8 -8 -7 -6 -6 -5 -5 -6 -6 -7 -6 -6 -5 -5 -5 -7 -7 -6 -7 -8 -8 -8 -8 -9 -9 -9 -9
-9 -8 -7 -6 -6 -6 -6 -7 -7 -7 -6 -6 -6 -7 -7 -7 -7 -8 -8 -8 -8 -9 -9 -9 -10 -10 -10
-9 -9 -8 -6 -7 -7 -7 -7 -6 -6 -6 -7 -7 -7 -7 -8 -8 -8 -8 -9 -9 -9 -9 -10 -10 -11 -11

GFSFLT2_700_temp_003.txt.gz
Temp
-2 -1 -1 -1 -0 -1 -1 -1 -1 -0 0 -0 -1 -1 -1 -1 -1 -1 -0 -0 -1 -2 -2 -2 -2 -2 -2
-1 -2 -2 -1 -1 -2 -2 -2 -2 -1 -1 -1 -1 -1 -1 -1 -1 -1 -1 -0 -1 -2 -2 -2 -2 -2 -2
-4 -2 -2 -2 -3 -3 -3 -3 -2 -2 -2 -2 -1 -1 -1 -1 -1 -1 -1 -1 -1 -1 -2 -2 -2 -2 -3
-5 -4 -3 -2 -4 -4 -3 -2 -3 -3 -2 -2 -2 -2 -1 -2 -2 -1 -1 -1 -1 -1 -2 -2 -1 -2 -2
-7 -6 -5 -4 -4 -4 -4 -3 -3 -3 -3 -3 -3 -2 -2 -1 -3 -1 -2 -1 -1 -1 -2 -2 -2 -2 -3
-9 -8 -7 -6 -5 -5 -4 -4 -3 -3 -3 -2 -3 -3 -3 -3 -2 -2 -2 -2 -2 -2 -2 -2 -3 -3 -3
-10 -9 -8 -7 -6 -5 -5 -5 -4 -3 -4 -3 -3 -3 -2 -2 -3 -2 -2 -2 -3 -3 -2 -3 -3 -4 -4
-11 -10 -9 -8 -7 -6 -5 -5 -4 -3 -4 -4 -4 -3 -3 -3 -3 -2 -2 -3 -4 -4 -4 -4 -4 -4 -4
-11 -10 -9 -8 -7 -7 -6 -6 -5 -4 -4 -5 -4 -5 -3 -3 -3 -3 -3 -4 -4 -4 -5 -5 -5 -5 -5
-10 -9 -9 -8 -7 -7 -7 -7 -7 -6 -5 -4 -5 -4 -4 -3 -3 -3 -4 -4 -5 -6 -5 -5 -5 -5 -5
-10 -9 -9 -8 -7 -7 -8 -7 -6 -6 -6 -5 -5 -4 -4 -4 -4 -4 -5 -5 -5 -6 -6 -5 -6 -6 -6
-11 -10 -9 -8 -7 -7 -7 -7 -7 -6 -5 -5 -5 -4 -4 -4 -4 -5 -5 -5 -6 -6 -5 -7 -6 -6 -6
-12 -10 -9 -8 -7 -7 -7 -7 -7 -6 -5 -6 -6 -6 -6 -5 -5 -5 -6 -6 -6 -6 -8 -7 -7 -7 -8
-11 -10 -9 -9 -8 -8 -8 -8 -7 -7 -7 -7 -7 -7 -7 -7 -7 -7 -7 -6 -7 -8 -7 -7 -8 -8 -8
-11 -10 -10 -9 -9 -9 -9 -8 -8 -8 -9 -8 -8 -7 -8 -8 -7 -6 -7 -8 -8 -8 -8 -8 -8 -8 -8
-11 -11 -10 -10 -10 -10 -9 -9 -9 -9 -9 -8 -8 -8 -7 -7 -8 -8 -8 -8 -8 -8 -8 -9 -9 -9 -10
-11 -11 -11 -11 -11 -10 -9 -9 -10 -9 -9 -8 -8 -9 -8 -8 -8 -8 -8 -8 -9 -9 -9 -10 -10 -10 -10

GFSFLT2_700_temp_006.txt.gz
Temp
-3 -2 -1 -1 -1 -2 -2 -2 -2 -2 -2 -2 -2 -2 -1 -1 -1 -0 -1 -1 -1 -1 -1 -1 -2 -1 -2
-2 -2 -2 -2 -2 -1 -1 -2 -2 -2 -3 -3 -3 -2 -2 -1 -1 -1 -1 -1 -1 -1 -1 -1 -1 -2 -2
-4 -3 -2 -3 -2 -3 -3 -2 -3 -3 -3 -3 -3 -3 -3 -3 -2 -2 -2 -1 -1 -2 -1 -1 -0 -1 -2
-7 -6 -6 -4 -5 -5 -4 -5 -4 -4 -4 -3 -3 -3 -4 -3 -3 -3 -2 -2 -1 -2 -1 -1 -1 -0 -1
-11 -10 -9 -8 -9 -9 -9 -8 -6 -6 -5 -4 -4 -3 -3 -3 -3 -3 -3 -3 -2 -2 -2 -1 -2 -1 -1
-12 -12 -12 -12 -12 -11 -11 -9 -7 -6 -6 -5 -4 -4 -3 -3 -3 -3 -3 -4 -2 -2 -1 -2 -2 -1 -2
-14 -13 -13 -13 -13 -12 -11 -10 -8 -7 -7 -5 -5 -4 -4 -3 -3 -3 -3 -2 -3 -3 -2 -2 -2 -2 -2
-14 -14 -13 -12 -12 -12 -11 -10 -9 -7 -6 -5 -5 -4 -4 -3 -3 -4 -3 -3 -2 -2 -3 -3 -3 -3 -3
-14 -14 -13 -13 -13 -12 -11 -10 -8 -7 -6 -7 -5 -5 -5 -4 -4 -4 -4 -3 -3 -3 -3 -3 -4 -3 -4
-13 -13 -13 -12 -12 -12 -11 -10 -10 -8 -7 -8 -7 -6 -5 -4 -5 -5 -4 -4 -4 -3 -4 -4 -5 -4 -5
-13 -13 -13 -12 -12 -11 -11 -10 -9 -9 -8 -8 -7 -7 -7 -6 -6 -5 -5 -4 -4 -5 -6 -6 -5 -6 -6
-14 -13 -13 -12 -12 -11 -10 -9 -9 -8 -8 -8 -8 -7 -6 -6 -6 -5 -6 -6 -6 -7 -7 -7 -7 -7 -7
-14 -13 -13 -12 -11 -11 -10 -10 -9 -9 -8 -8 -8 -7 -7 -6 -6 -7 -7 -7 -7 -8 -8 -8 -7 -7 -6
-13 -13 -12 -11 -11 -11 -10 -10 -10 -10 -9 -9 -8 -8 -8 -8 -8 -8 -8 -8 -8 -9 -8 -8 -7 -9 -10
-13 -12 -12 -11 -11 -11 -11 -11 -11 -10 -10 -10 -9 -9 -9 -8 -8 -8 -9 -9 -9 -8 -8 -9 -10 -9 -8
-13 -12 -12 -12 -12 -12 -11 -12 -11 -10 -10 -10 -10 -10 -10 -9 -9 -10 -9 -8 -9 -10 -11 -9 -9 -9 -9
-13 -13 -14 -13 -13 -12 -12 -12 -11 -11 -11 -11 -11 -10 -9 -10 -9 -10 -11 -10 -9 -9 -9 -10 -10 -10 -10

GFSFLT2_700_temp_009.txt.gz
Temp
-7 -5 -5 -4 -4 -4 -4 -3 -2 -2 -2 -2 -2 -3 -2 -2 -2 -2 -2 -2 -2 -1 -1 -1 -1 -1 -1
-8 -7 -7 -6 -5 -4 -4 -4 -3 -2 -3 -3 -2 -3 -3 -2 -2 -2 -2 -2 -2 -1 -2 -2 -1 -1 -0
-11 -10 -9 -9 -7 -6 -6 -5 -5 -4 -4 -3 -3 -4 -4 -3 -4 -2 -3 -3 -2 -3 -2 -2 -2 -1 -1
-13 -13 -12 -11 -11 -10 -9 -9 -7 -7 -6 -5 -6 -6 -5 -4 -4 -4 -4 -3 -3 -3 -2 -2 -2 -2 -2
-14 -14 -13 -12 -12 -12 -12 -11 -11 -11 -10 -9 -8 -7 -6 -5 -4 -4 -3 -4 -4 -4 -3 -2 -1 -1 -0
-16 -15 -14 -14 -13 -13 -14 -14 -13 -12 -11 -11 -10 -8 -6 -6 -5 -4 -4 -4 -3 -3 -3 -2 -1 -1 -1
-16 -15 -15 -14 -15 -14 -14 -14 -13 -12 -12 -11 -9 -8 -6 -6 -5 -5 -4 -4 -3 -3 -2 -2 -2 -2 -2
-15 -15 -15 -14 -15 -15 -14 -13 -13 -12 -12 -11 -9 -9 -7 -6 -5 -5 -4 -3 -3 -3 -2 -2 -2 -2 -2
-15 -15 -15 -14 -14 -14 -14 -14 -12 -11 -12 -11 -10 -10 -8 -6 -6 -5 -5 -4 -3 -3 -3 -3 -2 -2 -2
-14 -15 -14 -14 -14 -14 -14 -13 -12 -11 -11 -11 -10 -9 -8 -7 -6 -6 -5 -5 -4 -4 -4 -3 -3 -3 -2
-15 -14 -14 -14 -14 -14 -13 -12 -12 -11 -11 -11 -9 -9 -9 -7 -7 -7 -6 -5 -4 -5 -5 -4 -3 -4 -4
-15 -14 -14 -13 -13 -13 -12 -12 -12 -12 -11 -10 -9 -9 -8 -8 -8 -8 -7 -7 -6 -6 -5 -6 -6 -5 -5
-15 -14 -14 -13 -12 -12 -12 -12 -12 -12 -11 -10 -10 -9 -8 -8 -8 -8 -8 -8 -8 -7 -7 -7 -7 -6 -6
-15 -14 -13 -13 -12 -12 -12 -12 -12 -12 -11 -11 -11 -10 -9 -9 -8 -8 -8 -9 -9 -9 -9 -8 -8 -8 -8
-14 -13 -13 -13 -14 -14 -13 -13 -13 -12 -12 -12 -11 -10 -10 -10 -9 -9 -9 -10 -10 -10 -10 -10 -9 -9 -10
-14 -14 -14 -15 -15 -14 -14 -14 -13 -12 -12 -12 -12 -11 -10 -10 -10 -10 -10 -11 -11 -11 -11 -10 -10 -10 -10
-15 -15 -15 -15 -15 -14 -14 -13 -13 -12 -12 -12 -12 -12 -11 -10 -11 -12 -12 -11 -11 -12 -11 -11 -11 -11 -12

GFSFLT2_700_temp_012.txt.gz
Temp
-11 -10 -10 -11 -10 -11 -10 -10 -8 -7 -6 -5 -4 -4 -3 -2 -2 -2 -2 -2 -1 -2 -2 -1 -1 -2 -0
-13 -12 -12 -11 -12 -13 -12 -11 -11 -9 -9 -7 -6 -5 -4 -4 -3 -3 -2 -2 -2 -1 -2 -1 -2 -1 -1
-15 -15 -15 -14 -14 -14 -13 -13 -13 -12 -10 -10 -8 -7 -6 -5 -4 -4 -3 -3 -2 -2 -2 -2 -2 -2 -2
-15 -15 -15 -15 -15 -14 -14 -13 -13 -13 -12 -12 -11 -10 -10 -8 -7 -6 -4 -3 -2 -3 -4 -3 -3 -2 -2
-16 -16 -16 -15 -14 -14 -15 -14 -13 -14 -14 -13 -12 -12 -11 -11 -9 -7 -6 -5 -3 -3 -4 -4 -3 -4 -3
-16 -17 -15 -16 -15 -15 -15 -15 -13 -13 -14 -13 -13 -12 -11 -11 -10 -9 -7 -5 -4 -4 -4 -4 -4 -3 -2
-18 -17 -16 -15 -16 -15 -15 -16 -14 -13 -14 -13 -12 -12 -11 -11 -10 -9 -8 -7 -5 -4 -4 -3 -3 -4 -3
-17 -16 -16 -16 -16 -16 -15 -14 -14 -14 -15 -13 -12 -12 -12 -10 -10 -9 -9 -7 -6 -5 -4 -3 -3 -2 -1
-16 -16 -16 -16 -16 -16 -15 -15 -14 -14 -14 -13 -13 -12 -11 -10 -10 -9 -8 -7 -6 -5 -4 -4 -3 -2 -2
-15 -15 -15 -15 -15 -16 -16 -15 -14 -13 -13 -14 -13 -12 -10 -10 -9 -8 -8 -7 -6 -5 -4 -4 -3 -3 -2
-15 -15 -15 -15 -15 -15 -14 -14 -14 -13 -13 -14 -13 -11 -11 -9 -9 -8 -8 -8 -7 -5 -4 -4 -4 -4 -3
-16 -15 -15 -14 -14 -14 -14 -13 -13 -13 -13 -13 -12 -12 -11 -9 -8 -9 -8 -8 -7 -6 -6 -5 -5 -4 -4
-16 -15 -15 -15 -14 -14 -14 -14 -14 -14 -13 -13 -13 -12 -11 -10 -9 -9 -9 -9 -8 -7 -7 -6 -6 -5 -5
-16 -15 -15 -15 -15 -15 -15 -15 -14 -14 -14 -13 -13 -12 -11 -10 -10 -9 -9 -10 -9 -9 -8 -7 -7 -6 -6
-16 -16 -16 -16 -16 -16 -16 -15 -15 -14 -14 -13 -13 -12 -12 -11 -11 -10 -10 -10 -10 -9 -9 -8 -7 -7 -7
-17 -16 -16 -16 -16 -15 -15 -15 -14 -14 -13 -13 -13 -13 -12 -12 -11 -11 -11 -11 -10 -10 -9 -9 -9 -8 -8
-16 -16 -16 -16 -15 -15 -15 -14 -14 -14 -14 -13 -13 -13 -13 -12 -12 -12 -12 -12 -11 -11 -10 -10 -10 -10 -10

GFSFLT2_700_temp_015.txt.gz
Temp
-12 -11 -11 -13 -13 -14 -14 -14 -13 -12 -13 -12 -12 -11 -10 -8 -7 -6 -5 -5 -4 -3 -2 -2 -3 -2 -3
-13 -14 -14 -14 -14 -15 -15 -14 -14 -14 -13 -13 -14 -15 -12 -10 -8 -7 -6 -5 -4 -4 -3 -2 -2 -2 -2
-15 -15 -15 -15 -15 -15 -15 -14 -14 -14 -14 -14 -14 -13 -13 -12 -10 -9 -8 -6 -5 -4 -4 -3 -2 -2 -2
-16 -16 -16 -15 -16 -15 -14 -14 -14 -14 -14 -14 -13 -13 -14 -13 -13 -12 -11 -8 -6 -5 -4 -3 -3 -2 -2
-17 -17 -16 -16 -16 -16 -16 -14 -13 -15 -14 -13 -14 -14 -14 -14 -13 -13 -12 -11 -8 -6 -4 -4 -3 -3 -2
-17 -17 -17 -16 -16 -16 -16 -15 -14 -15 -15 -14 -15 -14 -14 -14 -13 -12 -12 -12 -10 -8 -6 -5 -4 -3 -2
-18 -18 -18 -16 -17 -16 -16 -16 -15 -14 -15 -14 -15 -14 -14 -14 -13 -12 -12 -11 -11 -9 -8 -6 -5 -3 -2
-18 -17 -17 -16 -17 -16 -16 -15 -15 -14 -15 -15 -15 -14 -14 -13 -13 -13 -12 -11 -11 -10 -8 -7 -5 -4 -2
-17 -17 -16 -16 -17 -16 -16 -16 -14 -14 -14 -15 -14 -14 -14 -13 -13 -12 -11 -11 -10 -10 -8 -7 -5 -3 -3
-16 -16 -16 -16 -16 -16 -16 -15 -15 -14 -14 -14 -14 -14 -13 -12 -12 -12 -11 -10 -9 -9 -8 -7 -7 -6 -4
-16 -16 -16 -16 -15 -15 -15 -15 -15 -14 -14 -14 -14 -14 -14 -11 -11 -11 -9 -9 -8 -8 -7 -6 -6 -5 -4
-16 -16 -16 -15 -15 -15 -16 -16 -16 -15 -15 -15 -14 -14 -13 -12 -11 -10 -9 -8 -8 -7 -7 -6 -6 -5 -4
-16 -16 -16 -16 -16 -16 -16 -16 -16 -16 -16 -15 -15 -14 -13 -12 -10 -10 -9 -8 -8 -8 -7 -6 -5 -6 -5
-17 -16 -17 -17 -16 -17 -17 -16 -16 -15 -15 -15 -15 -14 -13 -12 -10 -10 -9 -9 -9 -8 -8 -6 -6 -5 -5
-17 -16 -16 -16 -17 -17 -16 -16 -16 -15 -15 -14 -14 -14 -13 -12 -11 -10 -10 -9 -9 -9 -9 -8 -7 -6 -5
-16 -16 -16 -16 -16 -16 -16 -16 -15 -15 -15 -14 -14 -13 -13 -12 -12 -11 -11 -10 -10 -9 -9 -8 -8 -7 -7
-16 -16 -16 -16 -16 -15 -16 -15 -15 -14 -14 -14 -14 -14 -13 -13 -12 -12 -11 -11 -11 -10 -10 -9 -8 -8 -8

GFSFLT2_700_temp_018.txt.gz
Temp
-10 -10 -11 -11 -12 -13 -15 -15 -15 -15 -15 -14 -14 -14 -14 -14 -13 -14 -14 -12 -9 -8 -7 -6 -5 -5 -4
-11 -13 -13 -13 -13 -14 -15 -15 -15 -15 -16 -15 -14 -14 -16 -15 -14 -13 -12 -11 -11 -11 -10 -9 -6 -5 -4
-15 -15 -14 -15 -15 -14 -15 -15 -15 -16 -15 -14 -14 -15 -14 -13 -13 -13 -13 -13 -13 -13 -11 -10 -7 -5 -5
-17 -17 -17 -17 -17 -17 -15 -15 -15 -15 -14 -14 -15 -15 -15 -15 -14 -13 -13 -13 -13 -13 -12 -10 -7 -5 -4
-18 -18 -18 -17 -17 -17 -16 -16 -15 -15 -15 -14 -15 -15 -15 -15 -15 -15 -14 -14 -14 -14 -13 -12 -8 -6 -4
-18 -18 -18 -18 -17 -17 -17 -16 -14 -15 -16 -14 -15 -14 -14 -14 -15 -15 -15 -14 -14 -14 -13 -12 -9 -6 -5
-19 -18 -18 -18 -18 -17 -16 -16 -16 -15 -16 -14 -14 -14 -14 -14 -14 -14 -14 -14 -13 -13 -12 -12 -9 -6 -5
-19 -19 -19 -18 -18 -18 -17 -16 -16 -15 -15 -15 -14 -14 -14 -14 -14 -14 -14 -14 -14 -13 -12 -11 -9 -6 -4
-17 -17 -17 -17 -17 -17 -16 -16 -15 -15 -15 -15 -14 -14 -14 -14 -14 -14 -15 -14 -14 -12 -11 -11 -8 -6 -4
-16 -16 -17 -17 -17 -17 -17 -17 -15 -14 -15 -15 -15 -15 -13 -14 -14 -14 -13 -13 -12 -11 -10 -10 -9 -7 -5
-17 -16 -16 -16 -17 -17 -17 -17 -17 -16 -16 -17 -16 -16 -16 -14 -12 -13 -12 -11 -11 -10 -9 -8 -8 -8 -7
-16 -16 -17 -17 -17 -17 -17 -17 -17 -17 -17 -17 -17 -16 -16 -13 -12 -12 -11 -10 -9 -8 -7 -7 -7 -7 -7
-17 -17 -17 -17 -17 -17 -17 -17 -17 -17 -17 -16 -16 -15 -15 -13 -12 -11 -10 -10 -9 -9 -7 -7 -7 -6 -6
-17 -17 -17 -16 -16 -17 -17 -16 -16 -16 -16 -15 -15 -14 -14 -13 -12 -11 -10 -9 -9 -9 -8 -7 -6 -6 -6
-17 -16 -16 -16 -16 -16 -16 -16 -16 -16 -15 -15 -14 -14 -13 -12 -11 -11 -10 -9 -9 -9 -8 -8 -7 -5 -6
-16 -16 -15 -15 -15 -15 -15 -16 -15 -15 -15 -15 -15 -14 -13 -12 -12 -11 -10 -10 -10 -9 -9 -8 -8 -7 -6
-15 -15 -15 -15 -14 -14 -14 -14 -14 -14 -15 -14 -14 -14 -13 -13 -12 -12 -11 -11 -10 -9 -9 -8 -8 -8 -8

GFSFLT2_700_temp_021.txt.gz
Temp
-7 -8 -8 -10 -10 -12 -14 -16 -15 -14 -15 -16 -15 -14 -17 -15 -13 -14 -16 -14 -14 -14 -13 -12 -12 -12 -10
-8 -10 -12 -11 -12 -12 -13 -15 -17 -17 -18 -16 -16 -16 -14 -14 -14 -16 -15 -15 -16 -16 -15 -15 -13 -11 -11
-14 -14 -14 -16 -16 -16 -16 -16 -17 -17 -17 -16 -16 -15 -15 -15 -14 -14 -15 -15 -15 -14 -15 -13 -12 -12 -11
-17 -18 -18 -17 -17 -17 -16 -16 -16 -16 -16 -16 -16 -16 -15 -15 -15 -14 -14 -14 -14 -13 -13 -13 -13 -13 -13
-18 -18 -18 -17 -17 -17 -17 -16 -15 -16 -16 -15 -15 -15 -15 -15 -15 -15 -15 -15 -15 -15 -14 -14 -13 -13 -13
-18 -18 -18 -17 -17 -18 -17 -17 -15 -16 -16 -14 -15 -14 -14 -14 -15 -15 -15 -15 -15 -14 -15 -14 -14 -13 -13
-19 -18 -18 -18 -18 -18 -17 -17 -17 -16 -16 -14 -15 -14 -14 -14 -14 -14 -14 -14 -14 -14 -14 -14 -14 -13 -13
-18 -18 -19 -19 -18 -18 -18 -17 -17 -16 -17 -15 -15 -14 -14 -14 -14 -14 -14 -14 -14 -14 -14 -14 -14 -13 -12
-17 -17 -17 -18 -18 -18 -18 -18 -17 -16 -17 -17 -16 -15 -14 -14 -14 -14 -15 -15 -15 -15 -15 -14 -13 -13 -12
-17 -17 -17 -17 -17 -17 -18 -18 -18 -17 -17 -17 -16 -16 -13 -12 -13 -14 -14 -13 -13 -13 -13 -13 -13 -12 -10
-17 -17 -17 -17 -17 -17 -17 -18 -18 -18 -17 -18 -16 -16 -16 -13 -13 -13 -12 -12 -12 -12 -12 -11 -11 -11 -8
-17 -16 -16 -16 -17 -17 -17 -17 -17 -18 -17 -17 -16 -16 -14 -13 -12 -12 -11 -11 -11 -10 -10 -9 -9 -8 -7
-16 -16 -16 -16 -16 -16 -16 -16 -16 -17 -16 -16 -16 -14 -14 -13 -12 -11 -10 -11 -10 -9 -9 -8 -8 -7 -6
-16 -16 -16 -15 -16 -16 -16 -16 -15 -16 -16 -16 -15 -14 -13 -13 -12 -11 -10 -10 -9 -9 -8 -8 -7 -8 -7
-16 -16 -15 -15 -15 -15 -15 -15 -15 -15 -15 -15 -15 -14 -13 -13 -12 -11 -10 -10 -10 -9 -8 -8 -7 -7 -7
-16 -15 -15 -15 -15 -15 -14 -14 -14 -15 -15 -14 -14 -14 -13 -12 -11 -11 -10 -10 -10 -9 -9 -8 -7 -6 -6
-16 -16 -16 -15 -15 -14 -14 -14 -14 -14 -14 -14 -14 -14 -13 -12 -11 -11 -11 -10 -10 -9 -9 -9 -8 -8 -7

GFSFLT2_700_temp_024.txt.gz
Temp
-8 -8 -8 -9 -10 -12 -13 -16 -16 -16 -15 -14 -14 -15 -17 -16 -17 -17 -17 -17 -16 -15 -14 -14 -13 -12 -12
-9 -9 -10 -10 -11 -12 -13 -15 -17 -16 -15 -15 -16 -15 -15 -16 -16 -15 -15 -16 -16 -15 -15 -15 -15 -14 -13
-13 -12 -13 -14 -14 -14 -15 -15 -16 -16 -15 -16 -15 -15 -15 -15 -15 -16 -17 -16 -15 -15 -14 -15 -15 -14 -14
-15 -16 -17 -17 -18 -17 -16 -16 -15 -15 -15 -15 -16 -16 -15 -15 -15 -15 -14 -14 -14 -14 -14 -14 -14 -13 -14
-18 -18 -18 -18 -18 -17 -17 -16 -15 -15 -15 -15 -15 -15 -14 -15 -14 -15 -14 -14 -14 -14 -15 -15 -15 -15 -15
-18 -18 -18 -18 -18 -17 -17 -16 -15 -16 -16 -14 -16 -14 -14 -14 -14 -14 -14 -14 -14 -14 -15 -15 -14 -15 -15
-19 -18 -17 -17 -17 -17 -17 -17 -16 -15 -17 -16 -16 -15 -16 -15 -15 -14 -13 -13 -14 -14 -14 -14 -14 -14 -15
-17 -17 -18 -18 -18 -18 -17 -17 -17 -16 -18 -17 -16 -16 -16 -15 -15 -15 -15 -15 -15 -15 -15 -15 -14 -14 -14
-17 -17 -17 -17 -17 -18 -17 -17 -16 -16 -17 -17 -16 -16 -15 -14 -15 -16 -16 -15 -15 -15 -15 -15 -15 -15 -15
-16 -17 -17 -17 -17 -17 -17 -17 -17 -15 -17 -17 -16 -17 -15 -13 -14 -14 -13 -13 -14 -13 -13 -13 -14 -15 -14
-16 -16 -16 -16 -16 -16 -16 -17 -16 -16 -17 -17 -16 -16 -16 -13 -13 -13 -12 -12 -12 -12 -12 -13 -13 -13 -13
-16 -16 -15 -15 -15 -15 -15 -16 -16 -17 -17 -17 -16 -16 -15 -13 -12 -12 -12 -11 -11 -11 -11 -11 -11 -12 -12
-15 -15 -15 -15 -15 -15 -15 -15 -15 -16 -16 -16 -16 -15 -14 -12 -11 -10 -10 -10 -11 -11 -10 -9 -9 -10 -10
-15 -15 -15 -15 -15 -15 -15 -14 -14 -14 -15 -15 -15 -14 -13 -12 -11 -10 -10 -10 -11 -10 -10 -8 -9 -9 -8
-16 -16 -15 -15 -15 -15 -15 -14 -14 -14 -14 -15 -14 -13 -12 -12 -11 -10 -10 -11 -11 -10 -9 -8 -8 -8 -7
-16 -16 -16 -16 -15 -15 -15 -14 -14 -14 -14 -14 -13 -13 -12 -12 -11 -10 -11 -11 -10 -10 -9 -8 -7 -8 -7
-16 -16 -16 -16 -15 -15 -15 -14 -14 -14 -14 -14 -13 -13 -12 -12 -11 -12 -11 -11 -10 -10 -10 -8 -7 -7 -8

GFSFLT2_700_temp_027.txt.gz
Temp
-8 -9 -9 -10 -11 -13 -14 -15 -15 -16 -16 -15 -14 -14 -14 -16 -17 -16 -16 -15 -15 -15 -15 -15 -14 -14 -14
-9 -10 -12 -12 -13 -14 -14 -17 -18 -18 -16 -15 -15 -15 -15 -15 -15 -15 -14 -14 -14 -14 -15 -16 -15 -14 -14
-13 -13 -13 -15 -14 -14 -16 -17 -18 -17 -16 -16 -16 -16 -16 -15 -15 -15 -15 -15 -16 -17 -16 -16 -15 -15 -15
-14 -15 -17 -17 -17 -17 -17 -17 -16 -16 -16 -15 -15 -15 -16 -15 -14 -14 -14 -14 -14 -14 -14 -14 -14 -14 -13
-16 -18 -18 -17 -17 -17 -17 -16 -15 -15 -16 -16 -16 -16 -15 -15 -15 -15 -14 -14 -14 -14 -14 -14 -14 -14 -14
-18 -18 -17 -17 -17 -16 -16 -16 -14 -15 -17 -15 -17 -16 -16 -16 -16 -15 -15 -14 -14 -14 -13 -13 -14 -14 -14
-17 -17 -17 -17 -17 -16 -16 -16 -15 -15 -17 -15 -16 -15 -16 -16 -16 -16 -15 -14 -13 -13 -13 -13 -13 -14 -14
-16 -17 -17 -17 -17 -17 -16 -16 -15 -15 -17 -16 -16 -15 -15 -15 -15 -16 -16 -15 -14 -12 -12 -12 -13 -14 -15
-16 -16 -16 -16 -17 -17 -16 -16 -14 -14 -16 -16 -15 -15 -14 -14 -15 -15 -15 -14 -12 -12 -13 -13 -13 -14 -14
-15 -16 -16 -16 -16 -16 -16 -16 -15 -14 -16 -16 -15 -16 -13 -13 -14 -13 -12 -13 -12 -12 -12 -12 -13 -13 -13
-15 -16 -15 -15 -15 -15 -16 -16 -15 -15 -16 -16 -15 -15 -15 -12 -12 -12 -12 -12 -12 -12 -12 -12 -13 -13 -13
-15 -15 -15 -15 -15 -15 -15 -15 -15 -15 -15 -16 -15 -15 -14 -12 -11 -11 -11 -11 -11 -11 -11 -11 -11 -12 -13
-15 -15 -15 -15 -15 -15 -15 -15 -15 -15 -15 -15 -14 -14 -13 -12 -11 -11 -10 -11 -11 -11 -11 -11 -10 -10 -11
-15 -15 -16 -16 -15 -15 -14 -14 -14 -14 -14 -14 -14 -13 -12 -12 -12 -11 -11 -11 -10 -11 -10 -10 -9 -9 -11
-16 -16 -16 -15 -15 -15 -15 -14 -14 -14 -14 -14 -13 -13 -12 -12 -11 -11 -11 -11 -11 -10 -10 -9 -9 -10 -9
-16 -16 -16 -15 -15 -15 -15 -14 -14 -14 -13 -13 -13 -12 -12 -12 -11 -11 -11 -11 -11 -10 -9 -8 -8 -8 -6
-16 -16 -16 -16 -15 -15 -14 -14 -14 -14 -14 -13 -13 -12 -12 -12 -12 -12 -12 -11 -11 -11 -9 -7 -8 -7 -5

GFSFLT2_700_temp_030.txt.gz
Temp
-8 -8 -9 -11 -11 -13 -14 -15 -15 -15 -14 -15 -16 -16 -15 -15 -16 -15 -17 -16 -16 -16 -15 -14 -14 -13 -13
-8 -9 -11 -12 -12 -14 -14 -15 -16 -15 -15 -15 -15 -16 -16 -15 -16 -16 -15 -15 -15 -15 -15 -14 -15 -15 -14
-12 -12 -13 -13 -13 -14 -15 -15 -15 -15 -16 -15 -16 -16 -16 -16 -15 -15 -15 -15 -15 -15 -15 -15 -16 -15 -15
-14 -14 -14 -15 -15 -15 -15 -15 -15 -15 -15 -15 -16 -16 -16 -16 -16 -16 -15 -15 -14 -14 -14 -14 -14 -14 -14
-16 -16 -15 -15 -15 -15 -15 -14 -13 -15 -15 -14 -15 -15 -15 -16 -16 -15 -15 -15 -15 -14 -14 -14 -13 -13 -13
-15 -15 -15 -16 -15 -15 -14 -14 -13 -14 -15 -14 -15 -14 -15 -15 -16 -16 -16 -16 -16 -15 -14 -14 -13 -13 -13
-16 -16 -15 -15 -15 -15 -14 -14 -14 -15 -16 -13 -15 -13 -15 -14 -15 -16 -16 -15 -15 -14 -14 -13 -12 -12 -12
-16 -16 -16 -16 -16 -16 -15 -15 -14 -14 -16 -14 -14 -14 -14 -14 -15 -15 -15 -14 -13 -13 -12 -12 -12 -12 -12
-15 -15 -15 -16 -16 -16 -15 -15 -13 -13 -16 -14 -14 -14 -13 -14 -13 -13 -13 -13 -13 -12 -12 -12 -12 -12 -12
-14 -15 -15 -16 -16 -16 -16 -15 -15 -14 -15 -14 -14 -15 -10 -12 -13 -13 -12 -12 -12 -12 -12 -12 -12 -12 -12
-14 -15 -15 -15 -15 -16 -16 -16 -16 -15 -15 -15 -14 -14 -14 -11 -11 -12 -11 -11 -11 -11 -11 -12 -12 -12 -12
-15 -15 -14 -15 -15 -15 -16 -15 -15 -15 -15 -15 -14 -14 -13 -12 -11 -11 -11 -11 -11 -11 -11 -11 -11 -11 -12
-15 -15 -15 -15 -15 -15 -15 -15 -15 -15 -15 -14 -13 -13 -13 -13 -12 -12 -11 -10 -12 -12 -11 -10 -10 -10 -10
-15 -15 -15 -15 -16 -15 -15 -14 -13 -14 -14 -14 -13 -13 -12 -13 -12 -12 -12 -12 -11 -11 -11 -10 -10 -10 -11
-16 -15 -15 -15 -15 -15 -15 -15 -14 -13 -13 -13 -13 -13 -13 -13 -12 -12 -12 -12 -12 -11 -10 -9 -9 -10 -11
-16 -16 -15 -15 -15 -15 -15 -15 -14 -14 -13 -13 -13 -13 -12 -12 -12 -12 -12 -11 -11 -10 -9 -9 -9 -9 -9
-16 -16 -15 -15 -15 -15 -15 -15 -14 -14 -14 -14 -13 -13 -12 -12 -13 -13 -12 -11 -11 -10 -8 -9 -8 -7 -8

GFSFLT2_700_temp_033.txt.gz
Temp
-7 -8 -9 -10 -11 -13 -13 -13 -12 -12 -13 -13 -14 -14 -14 -13 -14 -14 -14 -14 -15 -16 -16 -15 -15 -14 -13
-7 -9 -10 -11 -12 -12 -12 -13 -13 -13 -13 -14 -14 -13 -14 -14 -14 -14 -14 -14 -15 -15 -16 -16 -15 -15 -15
-10 -10 -11 -12 -12 -13 -13 -13 -13 -13 -14 -14 -14 -14 -14 -14 -14 -14 -15 -15 -15 -15 -15 -15 -14 -15 -15
-13 -12 -12 -13 -14 -13 -13 -13 -13 -13 -13 -13 -14 -14 -14 -14 -15 -15 -15 -15 -15 -14 -14 -14 -14 -13 -13
-14 -14 -14 -14 -14 -13 -13 -13 -12 -13 -13 -12 -13 -13 -13 -14 -14 -14 -15 -15 -15 -14 -14 -14 -14 -14 -13
-14 -14 -15 -15 -14 -14 -13 -13 -11 -13 -14 -11 -14 -13 -14 -14 -14 -15 -14 -14 -14 -14 -14 -14 -14 -14 -14
-15 -15 -15 -15 -14 -13 -13 -14 -13 -13 -15 -12 -13 -13 -14 -14 -15 -14 -14 -13 -13 -13 -13 -14 -14 -14 -13
-15 -15 -15 -15 -15 -15 -15 -14 -13 -13 -15 -12 -13 -13 -13 -14 -14 -14 -13 -13 -13 -12 -12 -12 -12 -12 -12
-15 -15 -15 -15 -16 -16 -15 -15 -14 -13 -15 -13 -13 -12 -12 -13 -12 -12 -12 -12 -12 -12 -12 -12 -12 -12 -11
-14 -14 -15 -16 -16 -17 -16 -15 -15 -12 -15 -13 -13 -13 -9 -12 -12 -12 -11 -12 -11 -12 -12 -12 -12 -12 -12
-14 -14 -15 -15 -16 -16 -16 -16 -15 -15 -15 -14 -13 -13 -13 -11 -11 -12 -12 -11 -11 -11 -12 -12 -12 -12 -12
-14 -15 -14 -15 -16 -16 -16 -16 -16 -16 -15 -14 -13 -13 -13 -12 -12 -11 -11 -12 -11 -11 -11 -11 -11 -11 -11
-14 -15 -15 -15 -15 -15 -15 -15 -15 -15 -15 -14 -14 -13 -13 -13 -13 -12 -12 -11 -11 -11 -10 -9 -10 -10 -10
-15 -15 -15 -15 -15 -15 -15 -14 -14 -14 -15 -14 -14 -13 -13 -13 -13 -12 -12 -11 -11 -11 -10 -9 -9 -10 -11
-15 -15 -15 -15 -15 -15 -15 -14 -14 -14 -13 -14 -14 -14 -14 -14 -13 -12 -11 -11 -12 -10 -9 -10 -9 -10 -11
-16 -16 -15 -15 -15 -15 -15 -15 -15 -14 -14 -13 -13 -13 -13 -13 -12 -11 -11 -11 -11 -10 -10 -9 -9 -9 -10
-16 -16 -15 -15 -15 -15 -15 -15 -15 -15 -14 -14 -13 -13 -13 -12 -12 -13 -12 -11 -11 -10 -10 -9 -9 -10 -10

GFSFLT2_700_temp_036.txt.gz
Temp
-6 -7 -8 -9 -10 -11 -12 -11 -11 -11 -12 -12 -12 -12 -12 -12 -12 -12 -12 -12 -12 -12 -12 -14 -14 -14 -14
-6 -8 -9 -9 -11 -12 -12 -12 -12 -11 -12 -12 -12 -12 -12 -12 -12 -12 -12 -12 -13 -13 -13 -13 -14 -15 -15
-7 -9 -9 -11 -12 -12 -12 -12 -12 -12 -12 -13 -13 -13 -13 -13 -13 -13 -13 -13 -13 -13 -13 -13 -13 -13 -14
-11 -10 -11 -12 -13 -13 -12 -12 -12 -13 -12 -12 -12 -12 -12 -13 -13 -13 -13 -13 -13 -13 -13 -13 -13 -13 -13
-12 -12 -12 -13 -13 -13 -12 -12 -12 -13 -12 -11 -12 -11 -12 -12 -13 -13 -13 -12 -13 -13 -13 -13 -13 -14 -14
-13 -13 -13 -13 -14 -13 -13 -12 -11 -13 -14 -11 -13 -12 -13 -13 -13 -12 -12 -12 -12 -12 -13 -13 -13 -13 -14
-13 -14 -14 -14 -14 -13 -13 -13 -13 -13 -15 -11 -13 -12 -13 -13 -12 -13 -12 -12 -12 -12 -12 -12 -12 -12 -13
-14 -15 -15 -15 -15 -14 -14 -13 -13 -14 -16 -13 -13 -12 -12 -13 -13 -13 -12 -12 -12 -12 -12 -12 -12 -12 -12
-15 -15 -15 -15 -15 -15 -15 -15 -14 -13 -15 -13 -12 -12 -12 -13 -13 -12 -12 -12 -12 -12 -12 -12 -12 -12 -11
-14 -14 -15 -14 -15 -16 -16 -16 -15 -13 -15 -13 -12 -13 -10 -11 -12 -12 -11 -12 -11 -11 -12 -12 -12 -12 -12
-14 -14 -14 -15 -15 -16 -16 -16 -15 -14 -15 -15 -13 -13 -14 -11 -10 -12 -12 -11 -11 -11 -11 -11 -12 -12 -12
-14 -14 -15 -15 -15 -16 -16 -16 -16 -15 -15 -15 -14 -14 -13 -12 -11 -11 -11 -11 -11 -11 -11 -10 -10 -10 -10
-15 -15 -15 -15 -16 -16 -15 -15 -15 -15 -15 -15 -15 -14 -14 -13 -12 -12 -12 -11 -11 -11 -10 -10 -10 -11 -11
-15 -15 -15 -15 -15 -15 -15 -15 -14 -14 -15 -15 -14 -14 -14 -14 -13 -12 -12 -12 -11 -11 -10 -10 -11 -10 -9
-16 -15 -15 -15 -15 -15 -15 -14 -14 -14 -14 -14 -14 -14 -14 -14 -13 -13 -12 -11 -11 -11 -10 -10 -11 -10 -10
-16 -16 -15 -15 -15 -15 -15 -14 -14 -14 -14 -14 -14 -13 -13 -13 -14 -12 -12 -12 -11 -11 -11 -11 -11 -11 -10
-16 -16 -15 -15 -15 -14 -14 -14 -14 -15 -15 -14 -14 -14 -13 -12 -12 -14 -12 -12 -11 -11 -11 -11 -11 -11 -11

GFSFLT2_700_temp_042.txt.gz
Temp
-4 -4 -5 -5 -6 -7 -8 -8 -9 -10 -10 -11 -11 -11 -12 -12 -11 -11 -10 -10 -10 -10 -10 -10 -10 -10 -12
-5 -5 -6 -7 -8 -9 -10 -11 -11 -11 -12 -12 -12 -12 -12 -12 -11 -11 -10 -10 -10 -10 -10 -10 -10 -10 -11
-6 -7 -8 -9 -10 -11 -11 -11 -11 -12 -12 -12 -12 -12 -12 -12 -12 -12 -12 -11 -10 -11 -11 -11 -11 -11 -11
-8 -9 -10 -10 -11 -12 -11 -12 -11 -12 -12 -12 -13 -12 -12 -13 -13 -13 -12 -11 -11 -11 -11 -11 -11 -11 -10
-9 -10 -11 -12 -13 -13 -13 -12 -12 -12 -12 -12 -13 -12 -13 -13 -13 -13 -13 -12 -12 -12 -12 -11 -11 -11 -11
-11 -11 -12 -13 -14 -14 -13 -13 -12 -12 -13 -11 -13 -12 -13 -13 -13 -13 -12 -12 -12 -12 -12 -11 -11 -11 -11
-12 -13 -13 -14 -14 -14 -14 -13 -13 -13 -14 -12 -13 -12 -12 -12 -13 -13 -13 -13 -13 -12 -12 -12 -12 -12 -11
-13 -14 -14 -14 -15 -15 -14 -14 -13 -13 -14 -14 -13 -12 -12 -12 -13 -14 -14 -14 -13 -13 -13 -12 -12 -11 -11
-14 -14 -15 -15 -15 -15 -15 -14 -13 -13 -14 -15 -13 -11 -11 -11 -13 -14 -14 -14 -14 -13 -12 -12 -12 -12 -11
-14 -14 -15 -15 -15 -16 -16 -15 -14 -13 -15 -14 -13 -13 -10 -10 -11 -13 -14 -14 -13 -13 -12 -12 -12 -12 -11
-14 -14 -15 -15 -15 -16 -16 -16 -15 -14 -16 -15 -14 -14 -14 -12 -11 -12 -13 -13 -13 -12 -12 -12 -12 -12 -11
-14 -15 -15 -15 -15 -15 -15 -15 -16 -15 -15 -15 -14 -14 -14 -13 -12 -12 -13 -13 -12 -12 -12 -12 -12 -12 -11
-15 -15 -15 -15 -15 -15 -15 -15 -15 -15 -15 -15 -15 -15 -15 -14 -14 -13 -12 -12 -13 -12 -12 -12 -12 -11 -11
-15 -15 -15 -15 -15 -16 -15 -15 -14 -14 -15 -15 -15 -15 -15 -15 -14 -14 -14 -13 -12 -12 -12 -11 -11 -12 -11
-15 -15 -15 -15 -15 -15 -15 -15 -14 -14 -14 -15 -15 -15 -15 -15 -14 -14 -14 -13 -12 -12 -12 -11 -11 -11 -11
-15 -15 -15 -15 -15 -15 -15 -15 -15 -15 -15 -15 -14 -14 -13 -13 -15 -14 -14 -13 -12 -12 -12 -12 -10 -11 -11
-15 -15 -15 -15 -15 -15 -15 -15 -15 -15 -15 -15 -14 -14 -13 -12 -13 -14 -14 -13 -12 -12 -12 -11 -10 -10 -10

GFSFLT2_700_temp_045.txt.gz
Temp
-3 -3 -3 -4 -4 -5 -6 -6 -7 -8 -9 -10 -10 -10 -10 -11 -11 -12 -11 -11 -11 -10 -10 -10 -10 -11 -11
-3 -4 -5 -6 -6 -7 -8 -9 -9 -10 -11 -11 -11 -11 -12 -12 -11 -11 -11 -11 -11 -10 -10 -10 -10 -10 -11
-4 -6 -6 -7 -7 -8 -9 -10 -10 -11 -11 -12 -12 -12 -12 -12 -12 -12 -12 -11 -11 -11 -11 -11 -11 -11 -11
-6 -7 -8 -8 -9 -10 -9 -11 -11 -11 -12 -12 -12 -12 -12 -12 -12 -12 -13 -12 -12 -11 -11 -11 -11 -10 -10
-7 -8 -9 -10 -11 -11 -11 -11 -11 -12 -11 -12 -12 -12 -12 -12 -13 -13 -13 -13 -12 -12 -12 -11 -11 -11 -11
-10 -10 -11 -12 -12 -12 -12 -12 -11 -12 -11 -11 -12 -12 -12 -12 -13 -13 -14 -13 -12 -12 -12 -12 -12 -12 -11
-11 -12 -12 -13 -13 -13 -13 -13 -13 -13 -13 -12 -13 -13 -13 -13 -13 -14 -14 -13 -12 -12 -12 -12 -12 -12 -12
-12 -12 -13 -13 -14 -14 -14 -14 -14 -14 -14 -14 -14 -13 -12 -12 -13 -13 -14 -14 -13 -12 -12 -12 -12 -12 -12
-13 -13 -14 -14 -15 -14 -15 -15 -14 -14 -14 -15 -13 -13 -12 -12 -13 -14 -14 -14 -14 -13 -13 -13 -13 -12 -12
-13 -14 -14 -14 -15 -15 -15 -15 -15 -14 -15 -14 -13 -14 -11 -11 -12 -13 -13 -14 -14 -13 -13 -13 -13 -13 -12
-13 -14 -14 -15 -15 -15 -16 -16 -15 -15 -16 -15 -14 -14 -14 -12 -12 -13 -13 -14 -14 -13 -14 -14 -13 -13 -12
-13 -14 -14 -15 -15 -15 -15 -16 -16 -15 -16 -16 -15 -14 -14 -13 -13 -12 -13 -14 -13 -13 -13 -13 -13 -12 -12
-13 -14 -14 -15 -15 -15 -15 -15 -15 -15 -16 -16 -16 -15 -15 -14 -14 -13 -13 -13 -13 -13 -13 -12 -12 -12 -12
-13 -14 -15 -15 -15 -15 -15 -15 -14 -14 -15 -16 -16 -15 -15 -15 -14 -14 -14 -13 -13 -13 -13 -11 -11 -12 -12
-14 -14 -14 -14 -15 -15 -15 -15 -15 -14 -14 -15 -15 -15 -15 -15 -14 -14 -14 -14 -13 -13 -12 -11 -11 -11 -11
-14 -14 -14 -15 -15 -15 -15 -15 -15 -15 -15 -15 -15 -14 -14 -14 -15 -14 -13 -13 -13 -12 -12 -11 -10 -11 -11
-14 -14 -15 -15 -15 -15 -15 -15 -15 -15 -15 -15 -15 -15 -14 -12 -13 -14 -15 -15 -14 -13 -12 -11 -11 -10 -11

GFSFLT2_700_temp_048.txt.gz
Temp
-2 -3 -2 -3 -3 -3 -4 -4 -4 -6 -6 -7 -7 -8 -9 -9 -10 -10 -11 -11 -10 -11 -11 -10 -10 -10 -10
-3 -3 -3 -4 -4 -5 -5 -6 -7 -8 -8 -9 -9 -9 -10 -11 -11 -11 -11 -11 -11 -10 -10 -10 -10 -10 -10
-3 -4 -4 -5 -5 -6 -7 -8 -8 -9 -10 -10 -11 -11 -11 -11 -11 -11 -11 -11 -11 -10 -10 -10 -11 -11 -11
-4 -5 -5 -7 -7 -8 -7 -9 -9 -10 -11 -11 -12 -12 -12 -12 -12 -11 -11 -12 -11 -11 -11 -11 -11 -11 -11
-5 -6 -7 -8 -8 -8 -8 -9 -10 -12 -11 -11 -12 -12 -13 -13 -12 -12 -12 -12 -12 -12 -11 -11 -11 -11 -11
-7 -8 -9 -9 -9 -10 -10 -11 -10 -12 -12 -11 -12 -12 -13 -13 -13 -13 -13 -13 -13 -13 -12 -12 -12 -12 -12
-9 -9 -9 -10 -11 -11 -11 -12 -12 -13 -13 -12 -14 -13 -13 -13 -13 -14 -14 -13 -13 -13 -12 -12 -12 -11 -11
-10 -10 -11 -12 -12 -12 -12 -12 -12 -13 -14 -12 -14 -13 -13 -13 -14 -14 -14 -14 -14 -14 -13 -12 -12 -12 -12
-11 -12 -12 -13 -13 -13 -13 -13 -12 -13 -15 -14 -14 -13 -12 -12 -13 -14 -14 -14 -14 -14 -13 -13 -12 -12 -12
-12 -13 -13 -14 -14 -14 -14 -14 -14 -12 -14 -14 -14 -14 -11 -11 -12 -13 -13 -14 -14 -14 -14 -13 -13 -12 -12
-12 -13 -13 -14 -14 -15 -15 -15 -15 -14 -15 -15 -14 -15 -14 -12 -12 -13 -13 -13 -14 -14 -14 -14 -13 -13 -12
-12 -12 -13 -14 -14 -15 -15 -15 -15 -15 -15 -16 -16 -16 -15 -14 -13 -13 -13 -14 -14 -14 -14 -14 -14 -13 -13
-12 -12 -13 -13 -14 -14 -15 -15 -15 -15 -16 -16 -16 -16 -15 -14 -14 -13 -14 -13 -14 -13 -13 -13 -13 -13 -13
-12 -13 -13 -14 -14 -14 -14 -15 -15 -15 -16 -16 -16 -15 -15 -15 -14 -14 -14 -14 -14 -14 -13 -12 -13 -13 -13
-13 -13 -13 -14 -14 -15 -15 -15 -15 -15 -14 -15 -15 -15 -15 -15 -14 -14 -14 -14 -14 -14 -13 -12 -12 -12 -12
-13 -13 -14 -14 -14 -15 -15 -15 -15 -15 -15 -15 -14 -14 -14 -14 -15 -14 -14 -14 -13 -13 -13 -12 -11 -12 -12
-13 -14 -14 -14 -15 -15 -15 -15 -15 -15 -15 -15 -14 -14 -14 -13 -13 -15 -15 -15 -14 -13 -13 -12 -11 -10 -11

GFSFLT2_700_temp_051.txt.gz
Temp
-2 -2 -2 -2 -3 -3 -3 -3 -3 -4 -4 -5 -5 -5 -6 -7 -7 -8 -8 -8 -8 -9 -9 -9 -10 -10 -10
-2 -2 -3 -3 -3 -3 -4 -4 -5 -6 -6 -7 -7 -8 -8 -8 -9 -9 -9 -9 -10 -10 -10 -10 -10 -10 -10
-3 -3 -3 -4 -4 -4 -5 -6 -6 -7 -8 -9 -9 -10 -10 -10 -10 -10 -10 -10 -11 -11 -11 -11 -10 -10 -10
-3 -4 -4 -5 -6 -6 -6 -7 -7 -9 -10 -10 -10 -11 -11 -11 -11 -11 -11 -11 -11 -11 -11 -11 -10 -10 -11
-4 -5 -6 -6 -7 -7 -8 -8 -8 -10 -10 -10 -10 -11 -12 -12 -12 -12 -13 -13 -13 -12 -12 -12 -11 -11 -11
-6 -6 -7 -8 -8 -9 -9 -9 -8 -10 -11 -10 -11 -12 -12 -12 -12 -13 -13 -13 -13 -13 -13 -12 -12 -11 -11
-7 -8 -9 -10 -10 -9 -9 -10 -10 -11 -12 -10 -12 -12 -13 -13 -13 -14 -14 -14 -14 -13 -13 -13 -12 -12 -11
-9 -10 -10 -10 -10 -10 -10 -10 -10 -12 -14 -12 -13 -12 -13 -13 -14 -14 -15 -14 -14 -14 -14 -13 -13 -12 -12
-10 -10 -11 -11 -11 -11 -12 -12 -11 -12 -14 -15 -13 -13 -13 -12 -14 -14 -14 -14 -14 -14 -14 -14 -13 -13 -12
-11 -11 -11 -12 -13 -13 -13 -13 -13 -13 -14 -14 -13 -14 -12 -12 -12 -13 -13 -14 -14 -14 -14 -14 -13 -13 -12
-11 -11 -12 -12 -13 -14 -14 -14 -14 -14 -16 -16 -14 -15 -14 -13 -12 -13 -14 -14 -14 -14 -14 -14 -13 -13 -12
-11 -11 -12 -12 -13 -13 -14 -14 -15 -15 -15 -16 -15 -15 -15 -14 -13 -13 -14 -14 -14 -14 -14 -14 -14 -14 -13
-11 -12 -12 -12 -13 -14 -14 -15 -15 -16 -16 -16 -16 -16 -15 -15 -14 -13 -14 -13 -14 -13 -13 -13 -13 -14 -13
-11 -12 -12 -13 -14 -14 -14 -14 -14 -15 -16 -16 -16 -15 -15 -14 -14 -14 -14 -14 -14 -14 -14 -13 -13 -13 -13
-12 -12 -13 -13 -14 -14 -14 -14 -14 -14 -14 -15 -15 -15 -15 -15 -14 -14 -14 -14 -14 -14 -14 -13 -13 -13 -13
-12 -13 -13 -13 -13 -14 -14 -14 -14 -14 -14 -14 -14 -14 -14 -13 -15 -14 -14 -14 -14 -13 -13 -13 -11 -12 -13
-13 -13 -13 -13 -14 -14 -14 -14 -14 -14 -14 -14 -14 -14 -14 -13 -13 -14 -15 -14 -14 -13 -13 -13 -12 -12 -12

GFSFLT2_700_temp_054.txt.gz
Temp
-3 -3 -3 -2 -2 -2 -3 -3 -3 -3 -4 -3 -3 -4 -4 -5 -5 -6 -6 -6 -7 -7 -7 -8 -8 -9 -9
-3 -3 -3 -3 -3 -3 -3 -3 -4 -4 -5 -5 -5 -6 -7 -7 -7 -7 -8 -8 -8 -8 -8 -9 -9 -10 -10
-3 -3 -3 -4 -3 -3 -4 -4 -5 -6 -7 -8 -8 -9 -9 -9 -9 -9 -9 -9 -9 -9 -9 -10 -10 -11 -11
-4 -4 -4 -4 -5 -5 -4 -6 -6 -8 -9 -9 -9 -9 -10 -10 -10 -10 -10 -10 -10 -10 -10 -11 -11 -11 -11
-5 -5 -5 -5 -6 -6 -6 -7 -8 -9 -9 -9 -10 -10 -11 -12 -12 -12 -12 -12 -12 -12 -12 -12 -12 -12 -12
-5 -5 -6 -7 -7 -7 -8 -8 -8 -9 -9 -9 -11 -10 -12 -12 -12 -13 -13 -13 -13 -12 -12 -12 -13 -13 -12
-6 -7 -7 -8 -8 -9 -9 -9 -9 -10 -10 -8 -11 -11 -12 -12 -13 -14 -14 -14 -13 -13 -13 -13 -13 -13 -13
-8 -9 -9 -10 -10 -9 -9 -9 -9 -11 -12 -11 -12 -12 -12 -13 -13 -14 -14 -14 -14 -14 -14 -14 -13 -13 -13
-10 -10 -10 -10 -10 -10 -11 -10 -10 -11 -13 -13 -13 -13 -13 -12 -13 -14 -14 -15 -14 -14 -15 -14 -14 -13 -13
-11 -11 -11 -11 -11 -11 -11 -11 -12 -12 -14 -14 -13 -14 -12 -12 -12 -13 -14 -14 -14 -14 -14 -14 -14 -13 -13
-11 -11 -11 -11 -12 -12 -12 -13 -13 -13 -14 -14 -14 -14 -14 -12 -12 -13 -13 -14 -14 -14 -14 -14 -14 -14 -13
-11 -11 -11 -12 -12 -12 -13 -13 -13 -14 -15 -15 -14 -14 -14 -13 -13 -13 -14 -14 -14 -14 -14 -14 -14 -14 -14
-11 -11 -12 -12 -12 -12 -13 -13 -13 -14 -15 -15 -14 -14 -14 -14 -14 -13 -14 -13 -14 -14 -13 -13 -14 -14 -14
-11 -11 -12 -12 -13 -13 -13 -13 -13 -13 -14 -15 -15 -15 -14 -15 -14 -14 -14 -13 -14 -14 -14 -14 -14 -14 -14
-11 -11 -12 -12 -13 -13 -13 -13 -13 -13 -13 -14 -14 -14 -14 -15 -15 -14 -14 -14 -14 -14 -13 -13 -13 -14 -14
-11 -11 -12 -12 -12 -13 -13 -13 -13 -13 -14 -14 -14 -14 -14 -14 -14 -14 -13 -13 -13 -13 -13 -12 -12 -13 -13
-12 -12 -12 -12 -12 -13 -13 -13 -13 -13 -14 -14 -14 -14 -14 -13 -13 -14 -14 -14 -13 -13 -13 -13 -13 -13 -13

GFSFLT2_700_temp_060.txt.gz
Temp
-2 -2 -3 -3 -3 -4 -4 -3 -3 -3 -3 -3 -3 -3 -2 -2 -2 -2 -2 -2 -3 -4 -5 -5 -5 -6 -6
-2 -3 -4 -4 -4 -4 -3 -3 -4 -4 -4 -4 -4 -4 -4 -3 -3 -3 -4 -5 -6 -6 -6 -7 -7 -7 -7
-3 -3 -3 -4 -4 -4 -4 -5 -5 -5 -5 -5 -4 -4 -5 -6 -6 -6 -7 -7 -7 -7 -7 -7 -8 -8 -8
-3 -4 -4 -5 -5 -6 -6 -5 -5 -6 -6 -6 -7 -8 -8 -8 -8 -8 -8 -8 -8 -8 -9 -9 -10 -10 -10
-4 -5 -6 -6 -6 -6 -5 -6 -6 -7 -8 -8 -9 -9 -9 -9 -9 -9 -9 -9 -10 -10 -10 -10 -11 -11 -11
-5 -5 -6 -7 -7 -7 -7 -8 -8 -10 -9 -9 -10 -9 -9 -9 -10 -10 -10 -10 -11 -11 -11 -11 -11 -11 -12
-6 -7 -8 -8 -8 -8 -9 -9 -9 -10 -9 -9 -10 -9 -10 -10 -10 -11 -11 -11 -11 -11 -11 -11 -11 -11 -12
-7 -8 -9 -9 -9 -9 -9 -9 -10 -10 -10 -10 -10 -10 -11 -11 -11 -11 -11 -12 -12 -12 -12 -11 -12 -12 -12
-8 -8 -9 -9 -9 -9 -9 -9 -10 -11 -11 -11 -11 -10 -10 -11 -11 -12 -12 -12 -13 -13 -13 -13 -12 -12 -12
-8 -8 -8 -8 -9 -9 -10 -10 -10 -11 -11 -11 -11 -11 -10 -10 -11 -12 -12 -13 -13 -13 -13 -13 -13 -13 -12
-8 -8 -9 -9 -9 -10 -10 -10 -11 -12 -12 -12 -11 -12 -11 -11 -11 -11 -12 -12 -12 -13 -13 -13 -13 -13 -13
-8 -9 -9 -10 -10 -10 -10 -11 -11 -12 -13 -13 -12 -12 -12 -12 -11 -12 -12 -12 -12 -13 -13 -13 -13 -13 -13
-9 -9 -10 -10 -10 -10 -11 -11 -11 -12 -13 -13 -13 -13 -13 -12 -12 -12 -13 -12 -13 -13 -12 -13 -13 -13 -13
-10 -10 -10 -10 -10 -10 -11 -11 -11 -12 -13 -13 -13 -12 -13 -13 -12 -12 -13 -13 -13 -13 -13 -13 -13 -14 -13
-10 -10 -10 -10 -11 -11 -11 -11 -11 -11 -11 -12 -12 -12 -12 -13 -12 -13 -13 -13 -13 -13 -13 -13 -13 -13 -13
-10 -10 -10 -11 -11 -11 -11 -11 -11 -11 -12 -12 -12 -12 -12 -12 -13 -13 -13 -13 -12 -12 -13 -12 -13 -13 -13
-10 -11 -11 -11 -11 -11 -11 -11 -11 -11 -12 -12 -12 -12 -12 -12 -12 -14 -13 -13 -12 -12 -13 -13 -12 -13 -13

GFSFLT2_700_temp_063.txt.gz
Temp
-0 -1 -1 -1 -2 -2 -2 -2 -3 -3 -3 -4 -4 -4 -3 -4 -4 -3 -3 -3 -3 -3 -3 -3 -3 -4 -4
-1 -1 -1 -2 -2 -3 -3 -4 -5 -5 -5 -4 -4 -4 -4 -4 -4 -4 -4 -4 -4 -5 -5 -5 -6 -6 -6
-2 -2 -2 -3 -4 -4 -5 -5 -5 -4 -4 -5 -5 -5 -5 -5 -5 -6 -6 -6 -7 -6 -6 -6 -7 -7 -7
-3 -3 -3 -4 -4 -4 -5 -5 -5 -6 -6 -6 -6 -7 -7 -7 -8 -8 -8 -8 -7 -7 -7 -7 -8 -8 -8
-4 -3 -4 -4 -4 -4 -5 -6 -6 -7 -7 -7 -8 -8 -9 -9 -9 -9 -9 -8 -8 -9 -9 -9 -9 -8 -9
-4 -4 -4 -5 -5 -6 -7 -7 -8 -9 -8 -9 -9 -9 -9 -9 -9 -9 -9 -9 -9 -9 -10 -10 -10 -9 -9
-4 -4 -5 -6 -7 -7 -7 -7 -8 -8 -8 -9 -9 -9 -9 -9 -10 -10 -10 -10 -10 -10 -10 -10 -10 -10 -9
-5 -5 -6 -6 -6 -7 -7 -8 -8 -9 -9 -8 -9 -9 -9 -10 -10 -11 -11 -11 -11 -11 -11 -11 -11 -10 -11
-5 -6 -6 -6 -7 -8 -8 -8 -8 -9 -10 -9 -10 -9 -10 -10 -11 -11 -12 -12 -12 -12 -11 -11 -11 -12 -11
-6 -7 -7 -7 -7 -8 -9 -9 -9 -9 -9 -9 -10 -10 -9 -9 -10 -11 -11 -12 -12 -11 -11 -11 -12 -12 -11
-7 -7 -7 -8 -8 -9 -9 -9 -9 -10 -10 -10 -10 -10 -10 -10 -9 -11 -11 -11 -11 -11 -12 -12 -12 -12 -12
-8 -8 -8 -8 -8 -9 -9 -9 -10 -10 -11 -11 -10 -11 -11 -10 -10 -10 -12 -12 -12 -11 -12 -12 -12 -12 -12
-8 -8 -8 -9 -9 -9 -10 -10 -10 -11 -11 -12 -11 -11 -11 -11 -10 -11 -11 -11 -13 -12 -12 -12 -12 -12 -12
-9 -9 -9 -10 -10 -10 -10 -10 -10 -11 -11 -12 -11 -11 -11 -11 -11 -11 -12 -12 -12 -13 -13 -12 -13 -13 -12
-9 -10 -10 -10 -10 -10 -10 -10 -10 -10 -11 -11 -12 -11 -11 -12 -11 -12 -12 -12 -12 -12 -12 -12 -12 -13 -13
-10 -10 -10 -10 -10 -10 -10 -10 -10 -10 -11 -11 -11 -11 -11 -11 -12 -11 -11 -12 -12 -12 -13 -12 -12 -13 -13
-10 -10 -10 -10 -10 -11 -11 -11 -11 -11 -11 -11 -11 -11 -11 -11 -11 -13 -13 -13 -12 -12 -13 -13 -12 -12 -13

GFSFLT2_700_temp_066.txt.gz
Temp
-0 -1 -1 -1 -1 -1 -2 -2 -2 -3 -4 -3 -3 -3 -3 -3 -3 -4 -4 -4 -3 -3 -3 -3 -3 -3 -4
-1 -2 -1 -1 -2 -2 -3 -3 -3 -3 -3 -4 -4 -4 -4 -4 -4 -4 -5 -5 -5 -5 -5 -5 -5 -5 -5
-2 -1 -2 -2 -2 -3 -3 -3 -4 -4 -4 -4 -4 -5 -5 -6 -6 -6 -6 -6 -7 -7 -7 -7 -7 -7 -7
-2 -3 -3 -2 -3 -3 -3 -4 -4 -4 -5 -5 -6 -6 -6 -7 -7 -7 -7 -7 -7 -8 -8 -8 -8 -8 -8
-2 -3 -3 -3 -3 -3 -4 -4 -5 -5 -5 -6 -6 -6 -7 -7 -8 -8 -8 -8 -8 -8 -9 -9 -9 -9 -9
-3 -3 -3 -3 -4 -4 -4 -4 -5 -5 -6 -6 -6 -7 -8 -8 -8 -9 -9 -9 -9 -9 -9 -9 -9 -9 -9
-3 -3 -3 -4 -4 -4 -5 -5 -5 -6 -6 -7 -7 -8 -8 -9 -9 -9 -10 -10 -10 -10 -10 -10 -10 -10 -10
-3 -4 -4 -4 -5 -5 -5 -6 -7 -6 -5 -7 -7 -8 -8 -9 -10 -10 -10 -11 -11 -11 -11 -11 -11 -11 -11
-3 -4 -5 -6 -6 -6 -6 -7 -7 -7 -7 -7 -8 -7 -9 -10 -10 -11 -12 -12 -11 -11 -11 -11 -11 -11 -11
-5 -6 -6 -6 -7 -7 -7 -7 -8 -8 -8 -8 -8 -8 -7 -8 -9 -10 -11 -11 -11 -11 -11 -11 -11 -11 -11
-6 -7 -7 -7 -7 -7 -8 -8 -8 -9 -9 -8 -9 -9 -8 -8 -9 -10 -10 -10 -10 -11 -11 -11 -11 -12 -12
-7 -8 -8 -8 -8 -8 -9 -9 -9 -10 -10 -9 -9 -9 -9 -9 -9 -10 -10 -10 -11 -11 -11 -11 -12 -12 -12
-8 -9 -8 -9 -9 -9 -9 -9 -10 -10 -10 -10 -10 -10 -10 -10 -9 -10 -10 -10 -11 -11 -11 -11 -12 -12 -12
-9 -9 -9 -9 -9 -9 -10 -10 -10 -11 -11 -11 -11 -10 -10 -10 -10 -10 -10 -11 -11 -12 -12 -12 -12 -13 -12
-10 -10 -10 -10 -10 -10 -11 -10 -10 -11 -11 -11 -11 -11 -11 -11 -10 -11 -10 -11 -11 -11 -11 -11 -12 -13 -13
-10 -10 -10 -10 -11 -11 -11 -11 -11 -11 -11 -11 -11 -11 -11 -11 -11 -11 -11 -11 -11 -11 -11 -11 -11 -12 -13
-11 -11 -11 -11 -11 -11 -11 -11 -11 -11 -11 -12 -12 -12 -11 -11 -11 -12 -11 -12 -11 -12 -12 -12 -12 -12 -12

GFSFLT2_700_temp_072.txt.gz
Temp
-2 -3 -3 -2 -2 -3 -3 -2 -2 -2 -3 -3 -3 -3 -3 -3 -3 -3 -3 -3 -3 -3 -3 -3 -4 -4 -4
-3 -3 -3 -2 -2 -3 -3 -3 -3 -3 -3 -3 -3 -3 -3 -3 -3 -3 -4 -4 -4 -4 -4 -4 -4 -4 -5
-3 -3 -3 -3 -3 -3 -4 -4 -4 -4 -4 -4 -4 -4 -4 -4 -4 -5 -4 -4 -4 -4 -5 -5 -5 -6 -6
-3 -3 -3 -4 -4 -4 -4 -4 -4 -4 -4 -4 -4 -4 -4 -5 -5 -5 -4 -4 -5 -5 -5 -6 -6 -6 -6
-4 -4 -4 -4 -4 -4 -4 -4 -4 -4 -4 -5 -5 -5 -5 -5 -5 -5 -5 -5 -5 -5 -6 -6 -6 -6 -7
-3 -3 -3 -4 -4 -4 -4 -4 -4 -5 -5 -6 -6 -6 -6 -6 -6 -6 -6 -6 -6 -6 -6 -6 -7 -7 -7
-2 -2 -3 -3 -3 -4 -4 -5 -5 -5 -7 -7 -7 -7 -7 -7 -7 -7 -6 -6 -6 -6 -7 -7 -7 -7 -8
-2 -2 -2 -3 -3 -4 -4 -5 -6 -7 -8 -8 -8 -8 -8 -8 -8 -7 -7 -7 -7 -7 -7 -7 -7 -8 -8
-2 -2 -3 -4 -4 -5 -6 -6 -8 -8 -8 -9 -9 -9 -9 -9 -9 -9 -8 -7 -7 -7 -8 -8 -8 -8 -8
-2 -3 -4 -5 -6 -7 -7 -8 -9 -9 -9 -9 -9 -9 -9 -10 -10 -9 -9 -8 -8 -8 -8 -9 -8 -9 -9
-4 -5 -5 -6 -7 -8 -9 -9 -9 -9 -9 -9 -9 -9 -10 -10 -10 -10 -9 -9 -9 -9 -9 -9 -9 -9 -9
-5 -6 -7 -7 -8 -9 -9 -9 -9 -10 -10 -9 -10 -10 -10 -10 -10 -10 -10 -9 -9 -9 -10 -10 -10 -9 -9
-6 -7 -8 -8 -9 -9 -10 -10 -10 -10 -10 -10 -10 -10 -10 -10 -10 -10 -10 -10 -10 -10 -10 -10 -10 -10 -10
-8 -8 -9 -9 -10 -10 -10 -10 -10 -10 -10 -10 -10 -10 -10 -10 -10 -11 -11 -10 -10 -10 -10 -11 -11 -11 -10
-9 -9 -10 -10 -10 -10 -10 -10 -10 -11 -11 -11 -11 -11 -11 -11 -11 -11 -11 -11 -11 -11 -11 -11 -11 -11 -11
-10 -10 -10 -10 -11 -11 -11 -11 -11 -11 -11 -11 -11 -11 -11 -11 -11 -12 -12 -12 -12 -11 -12 -11 -10 -11 -11
-10 -10 -11 -11 -11 -11 -11 -11 -11 -11 -11 -12 -12 -11 -11 -11 -11 -12 -12 -12 -11 -11 -11 -11 -10 -11 -11

GFSFLT2_700_temp_075.txt.gz
Temp
-3 -3 -3 -3 -3 -3 -3 -3 -3 -2 -3 -3 -3 -3 -3 -3 -3 -3 -3 -3 -3 -3 -3 -3 -3 -3 -4
-3 -3 -3 -4 -3 -3 -3 -3 -3 -3 -3 -3 -4 -4 -4 -4 -4 -3 -4 -4 -3 -4 -4 -4 -4 -3 -4
-3 -3 -3 -3 -3 -4 -4 -4 -4 -4 -4 -4 -4 -4 -4 -4 -4 -4 -3 -4 -4 -4 -4 -4 -4 -4 -4
-2 -4 -4 -4 -4 -4 -4 -4 -4 -4 -3 -4 -4 -4 -4 -4 -4 -5 -5 -5 -5 -5 -5 -5 -5 -5 -5
-2 -3 -4 -4 -4 -4 -4 -3 -3 -4 -4 -4 -4 -5 -4 -5 -5 -5 -5 -6 -6 -5 -5 -5 -6 -6 -6
-2 -2 -2 -2 -2 -3 -3 -3 -3 -3 -4 -5 -5 -5 -5 -6 -6 -7 -7 -6 -6 -6 -6 -6 -6 -6 -6
-1 -2 -2 -2 -2 -3 -3 -3 -3 -3 -4 -5 -5 -6 -7 -7 -8 -7 -7 -7 -7 -7 -7 -7 -7 -7 -7
-1 -1 -2 -2 -2 -3 -3 -4 -4 -5 -6 -6 -7 -8 -8 -8 -8 -8 -8 -7 -7 -7 -7 -8 -8 -8 -8
-1 -1 -2 -2 -3 -4 -4 -5 -5 -6 -7 -8 -8 -9 -8 -8 -8 -8 -8 -8 -8 -8 -8 -8 -8 -8 -8
-2 -2 -3 -4 -4 -4 -5 -6 -7 -7 -8 -8 -9 -9 -9 -9 -9 -9 -9 -9 -9 -8 -8 -9 -9 -8 -9
-3 -3 -4 -5 -5 -6 -7 -7 -8 -9 -9 -9 -9 -9 -9 -10 -10 -10 -10 -9 -9 -9 -9 -9 -9 -9 -9
-3 -4 -5 -6 -7 -8 -8 -9 -9 -9 -10 -9 -9 -10 -10 -10 -10 -10 -11 -11 -10 -10 -10 -10 -10 -10 -10
-5 -6 -7 -8 -8 -9 -9 -9 -10 -10 -10 -10 -10 -10 -10 -10 -10 -10 -10 -11 -11 -11 -10 -10 -11 -11 -10
-6 -6 -7 -8 -9 -9 -10 -10 -10 -10 -10 -10 -10 -10 -10 -10 -10 -10 -11 -10 -11 -11 -11 -11 -11 -11 -11
-6 -7 -8 -9 -9 -10 -10 -10 -10 -11 -11 -11 -10 -10 -10 -10 -10 -11 -11 -11 -11 -11 -11 -11 -11 -11 -11
-7 -8 -9 -9 -10 -10 -10 -10 -11 -11 -11 -11 -11 -11 -10 -10 -11 -11 -11 -11 -12 -11 -12 -11 -11 -12 -11
-7 -8 -9 -10 -10 -11 -11 -11 -11 -11 -11 -12 -12 -11 -11 -11 -11 -12 -12 -12 -12 -11 -12 -12 -11 -11 -11

GFSFLT2_700_temp_078.txt.gz
Temp
-0 -0 -0 -1 -2 -3 -3 -3 -3 -3 -3 -4 -4 -4 -4 -3 -3 -3 -4 -3 -4 -4 -4 -4 -4 -4 -3
-0 -1 -1 -1 -1 -2 -2 -3 -3 -3 -3 -4 -4 -4 -3 -3 -4 -4 -4 -4 -4 -4 -4 -4 -4 -4 -4
-1 -1 -1 -1 -1 -2 -3 -4 -4 -5 -5 -4 -4 -3 -3 -3 -4 -4 -4 -4 -5 -4 -4 -5 -5 -5 -5
-0 -0 -1 -1 -1 -1 -2 -2 -2 -2 -3 -3 -3 -3 -3 -3 -4 -3 -4 -4 -4 -5 -5 -6 -5 -5 -6
-0 -0 -0 -0 -0 -1 -1 -2 -2 -3 -3 -3 -3 -4 -4 -4 -4 -4 -5 -5 -6 -6 -7 -6 -6 -6 -6
-0 -0 -0 -0 -0 -1 -1 -1 -1 -2 -3 -3 -3 -4 -4 -4 -5 -5 -6 -7 -7 -7 -7 -7 -7 -7 -7
-1 -1 -1 -1 -1 -1 -1 -2 -2 -2 -3 -3 -3 -3 -4 -5 -6 -7 -8 -8 -8 -8 -8 -8 -8 -8 -7
-1 -1 -1 -1 -1 -1 -2 -2 -2 -3 -3 -4 -4 -5 -6 -7 -8 -8 -8 -8 -8 -8 -8 -8 -8 -8 -8
-2 -2 -2 -2 -2 -2 -3 -3 -4 -4 -5 -5 -6 -7 -7 -8 -8 -8 -8 -8 -8 -8 -8 -8 -8 -9 -9
-2 -2 -2 -3 -3 -4 -4 -5 -5 -6 -6 -7 -8 -8 -8 -8 -8 -8 -9 -8 -8 -8 -9 -9 -9 -9 -9
-3 -3 -3 -3 -4 -4 -5 -6 -6 -7 -8 -8 -9 -9 -9 -9 -10 -10 -10 -9 -9 -9 -9 -9 -9 -9 -9
-3 -3 -3 -4 -5 -5 -6 -7 -8 -8 -9 -9 -9 -9 -9 -9 -9 -10 -10 -10 -10 -10 -10 -10 -10 -10 -10
-4 -4 -4 -5 -6 -6 -7 -8 -9 -9 -10 -10 -10 -10 -9 -10 -9 -10 -10 -11 -11 -11 -10 -10 -10 -10 -10
-4 -5 -5 -5 -6 -7 -8 -9 -9 -10 -10 -10 -10 -10 -10 -10 -10 -10 -11 -11 -11 -11 -11 -11 -11 -11 -11
-5 -5 -6 -6 -7 -8 -9 -9 -10 -10 -11 -11 -11 -10 -10 -10 -10 -11 -11 -11 -11 -11 -11 -11 -11 -11 -12
-6 -6 -6 -7 -8 -8 -9 -10 -10 -11 -11 -11 -11 -11 -11 -11 -11 -11 -11 -11 -12 -12 -11 -11 -11 -12 -11
-7 -7 -7 -8 -8 -9 -10 -10 -11 -11 -11 -12 -12 -12 -11 -11 -11 -11 -12 -13 -12 -12 -12 -12 -11 -11 -11

GFSFLT2_700_temp_081.txt.gz
Temp
0 0 0 -0 -0 -0 -1 -1 -1 -2 -2 -2 -3 -3 -4 -4 -4 -4 -4 -4 -4 -4 -4 -4 -4 -4 -4
0 0 -0 -0 -0 -1 -0 -1 -1 -1 -2 -2 -2 -4 -4 -4 -3 -3 -4 -3 -4 -4 -4 -4 -4 -4 -4
1 0 0 0 -0 -0 -0 -1 -1 -1 -1 -1 -1 -2 -2 -3 -3 -3 -4 -4 -4 -4 -4 -4 -4 -4 -4
0 0 0 0 0 0 -0 -1 -1 -1 -1 -1 -2 -2 -2 -3 -3 -3 -4 -4 -4 -4 -5 -5 -5 -5 -5
-0 -0 -0 -0 -0 -0 -0 -0 -0 -0 -1 -1 -2 -3 -3 -3 -3 -3 -4 -4 -5 -5 -6 -6 -6 -7 -7
-1 -1 -1 -1 -1 -1 -1 -0 -0 -1 -1 -1 -2 -2 -2 -3 -3 -4 -4 -5 -5 -6 -7 -7 -7 -7 -7
-1 -1 -1 -1 -1 -1 -1 -1 -1 -1 -2 -2 -2 -3 -3 -3 -4 -4 -5 -6 -7 -7 -7 -7 -7 -7 -7
-2 -2 -2 -2 -1 -1 -2 -2 -2 -3 -3 -3 -3 -4 -4 -5 -6 -6 -7 -7 -7 -8 -8 -8 -8 -8 -8
-2 -2 -2 -2 -2 -2 -2 -2 -3 -3 -4 -4 -5 -5 -6 -6 -7 -8 -8 -8 -8 -8 -8 -8 -8 -8 -9
-2 -2 -2 -2 -2 -2 -3 -3 -4 -4 -5 -6 -6 -7 -7 -8 -8 -8 -8 -8 -8 -8 -8 -9 -9 -9 -9
-3 -3 -3 -3 -3 -3 -3 -4 -5 -5 -6 -7 -7 -8 -8 -9 -9 -9 -9 -9 -9 -9 -8 -9 -9 -9 -9
-4 -4 -4 -4 -4 -4 -4 -5 -6 -6 -6 -7 -8 -8 -9 -9 -9 -10 -10 -9 -9 -9 -9 -9 -9 -9 -9
-4 -4 -4 -4 -4 -5 -5 -5 -6 -7 -7 -8 -8 -9 -9 -9 -9 -10 -10 -11 -10 -10 -10 -10 -10 -10 -10
-5 -5 -5 -5 -5 -5 -6 -6 -7 -7 -8 -8 -9 -9 -10 -10 -10 -10 -10 -10 -11 -11 -11 -11 -11 -11 -11
-6 -6 -6 -6 -6 -6 -7 -7 -8 -8 -9 -9 -9 -10 -10 -11 -10 -11 -11 -11 -11 -11 -11 -11 -11 -11 -11
-6 -7 -7 -7 -7 -7 -7 -8 -8 -9 -10 -10 -10 -10 -11 -11 -11 -11 -11 -11 -12 -12 -11 -11 -11 -12 -11
-7 -7 -7 -8 -8 -8 -8 -8 -9 -10 -10 -11 -11 -11 -11 -11 -12 -12 -12 -13 -12 -13 -12 -12 -11 -12 -12

GFSFLT2_700_temp_084.txt.gz
Temp
0 1 1 0 -0 0 -0 -0 -0 -1 -1 -1 -2 -2 -2 -3 -3 -3 -3 -3 -4 -4 -4 -4 -4 -4 -4
0 1 1 1 0 1 1 0 0 -1 -1 -1 -1 -1 -1 -1 -2 -3 -3 -3 -3 -4 -4 -4 -4 -4 -4
1 1 1 1 1 1 0 0 0 -0 -0 -1 -1 -1 -1 -2 -2 -2 -3 -3 -3 -3 -3 -3 -4 -4 -4
0 0 0 0 0 0 -0 -0 -0 -0 -0 -1 -1 -1 -1 -2 -2 -2 -2 -2 -2 -2 -3 -3 -3 -4 -4
-0 -0 -0 -0 -0 -0 -1 -0 -0 -1 -1 -1 -1 -1 -1 -1 -1 -2 -2 -2 -2 -3 -3 -4 -5 -5 -5
-1 -1 -1 -1 -1 -1 -1 -1 -1 -1 -1 -1 -1 -1 -1 -1 -1 -1 -1 -2 -3 -4 -4 -5 -5 -6 -7
-1 -1 -1 -1 -1 -1 -1 -1 -1 -1 -1 -1 -1 -2 -2 -2 -2 -2 -3 -3 -3 -4 -6 -7 -7 -7 -7
-1 -2 -2 -2 -2 -2 -2 -2 -2 -2 -2 -2 -2 -2 -3 -3 -3 -4 -5 -5 -6 -6 -7 -7 -8 -8 -8
-2 -2 -2 -2 -2 -2 -2 -2 -2 -2 -3 -3 -3 -4 -4 -5 -5 -6 -6 -7 -7 -7 -8 -8 -8 -8 -8
-2 -3 -3 -3 -3 -3 -3 -3 -3 -3 -3 -4 -4 -4 -5 -6 -7 -7 -8 -8 -8 -8 -8 -8 -9 -9 -9
-3 -3 -3 -3 -3 -3 -3 -3 -4 -4 -4 -4 -5 -5 -6 -7 -7 -8 -8 -8 -8 -9 -9 -9 -9 -9 -9
-4 -4 -4 -4 -4 -4 -4 -4 -4 -4 -5 -5 -6 -7 -7 -8 -9 -9 -9 -9 -9 -9 -9 -9 -9 -9 -9
-4 -4 -4 -4 -4 -5 -5 -5 -5 -5 -6 -6 -6 -7 -8 -9 -9 -9 -9 -10 -10 -10 -9 -9 -9 -9 -9
-5 -5 -5 -5 -5 -5 -5 -6 -6 -6 -6 -7 -7 -8 -9 -9 -9 -10 -10 -10 -10 -10 -11 -11 -10 -10 -10
-5 -5 -5 -5 -6 -6 -6 -6 -7 -7 -7 -7 -8 -8 -9 -10 -10 -10 -10 -10 -11 -11 -11 -11 -11 -11 -11
-6 -6 -6 -6 -6 -6 -7 -7 -7 -8 -8 -8 -8 -9 -9 -10 -11 -11 -11 -11 -12 -12 -12 -11 -12 -12 -12
-7 -7 -7 -7 -7 -7 -7 -8 -8 -9 -9 -9 -9 -10 -10 -10 -11 -11 -12 -12 -12 -12 -13 -12 -12 -13 -13

GFSFLT2_700_temp_087.txt.gz
Temp
1 1 1 1 1 1 1 1 1 0 0 -0 -0 -1 -1 -1 -2 -2 -3 -3 -3 -3 -3 -3 -3 -3 -3
0 0 1 1 1 1 1 1 1 1 0 0 -0 -0 -0 -1 -1 -2 -2 -2 -2 -2 -3 -3 -4 -4 -4
1 1 1 1 1 1 1 0 0 0 0 -0 -0 -0 -0 -0 -1 -1 -1 -1 -1 -2 -2 -3 -3 -3 -4
1 1 0 0 0 0 -0 -0 -0 -0 -0 -0 -0 -0 -0 -1 -1 -1 -1 -1 -1 -1 -2 -2 -3 -3 -4
0 0 -0 -0 -0 -1 -0 -1 -1 -1 -1 -1 -1 -1 -1 -1 -1 -1 -1 -1 -1 -1 -2 -2 -2 -3 -3
-0 -0 -1 -1 -1 -1 -1 -1 -1 -1 -1 -1 -1 -1 -1 -1 -1 -1 -1 -1 -1 -1 -2 -2 -3 -3 -3
-1 -1 -1 -1 -1 -1 -1 -1 -1 -1 -1 -1 -1 -1 -1 -1 -1 -1 -1 -2 -2 -2 -3 -3 -4 -5 -6
-1 -1 -1 -1 -1 -2 -2 -2 -2 -2 -2 -2 -2 -2 -2 -2 -2 -2 -3 -3 -3 -4 -4 -5 -6 -7 -7
-2 -2 -2 -2 -2 -2 -2 -2 -2 -2 -2 -2 -2 -3 -3 -3 -3 -4 -4 -4 -5 -5 -6 -6 -7 -7 -8
-2 -2 -2 -2 -2 -2 -3 -3 -3 -3 -3 -3 -3 -3 -4 -4 -4 -5 -5 -5 -6 -7 -7 -7 -7 -8 -8
-3 -3 -3 -3 -3 -3 -3 -3 -3 -3 -4 -4 -4 -4 -4 -5 -5 -5 -6 -6 -7 -7 -8 -8 -8 -8 -8
-3 -3 -3 -3 -4 -4 -4 -4 -4 -4 -4 -4 -5 -5 -5 -6 -6 -6 -7 -7 -7 -8 -8 -8 -9 -9 -9
-4 -4 -4 -4 -4 -4 -4 -4 -5 -5 -5 -5 -5 -6 -6 -6 -7 -7 -7 -8 -8 -8 -9 -9 -9 -9 -9
-4 -4 -5 -5 -5 -5 -5 -5 -5 -5 -5 -5 -6 -6 -7 -7 -7 -8 -8 -8 -9 -9 -9 -10 -10 -10 -10
-5 -5 -5 -5 -6 -6 -6 -6 -6 -6 -6 -7 -7 -7 -7 -8 -8 -9 -9 -9 -10 -10 -10 -10 -11 -11 -11
-6 -6 -6 -6 -6 -6 -6 -6 -6 -7 -7 -7 -8 -8 -8 -9 -9 -9 -10 -10 -10 -10 -10 -11 -11 -12 -12
-6 -7 -7 -7 -7 -7 -7 -7 -7 -7 -8 -8 -8 -8 -9 -9 -10 -10 -11 -11 -11 -11 -12 -12 -12 -12 -12

GFSFLT2_700_temp_090.txt.gz
Temp
1 1 1 1 1 1 1 1 1 1 1 1 1 1 0 -0 -0 -1 -2 -3 -3 -3 -3 -2 -3 -3 -3
1 1 1 1 1 1 1 1 1 1 1 0 0 0 0 0 -0 -0 -1 -1 -2 -2 -2 -2 -2 -2 -3
1 1 1 1 1 0 0 0 0 0 0 0 0 -0 -0 -0 -0 -0 -0 -1 -1 -1 -2 -2 -2 -2 -2
1 0 0 0 0 0 -0 -0 -0 -0 -0 -0 -0 -0 -0 -0 -1 -1 -1 -1 -1 -1 -1 -1 -1 -2 -2
0 0 -0 -0 -0 -0 -0 -1 -1 -1 -0 -1 -0 -0 -0 -0 -0 -0 -1 -1 -1 -1 -1 -1 -2 -2 -2
-0 -0 -0 -0 -0 -1 -1 -1 -1 -1 -1 -1 -1 -1 -1 -1 -1 -1 -1 -1 -1 -1 -1 -2 -2 -2 -3
-1 -1 -1 -1 -1 -1 -1 -1 -1 -1 -1 -1 -1 -1 -1 -1 -1 -1 -2 -2 -2 -2 -2 -2 -3 -3 -3
-1 -1 -1 -1 -1 -1 -2 -2 -2 -2 -2 -2 -2 -2 -2 -2 -2 -2 -2 -2 -3 -3 -3 -3 -4 -5 -5
-2 -2 -2 -2 -2 -2 -2 -2 -2 -2 -2 -2 -2 -2 -3 -3 -3 -3 -3 -3 -4 -4 -4 -5 -5 -6 -6
-2 -2 -2 -2 -2 -3 -3 -3 -3 -3 -3 -3 -3 -3 -3 -3 -4 -4 -4 -4 -5 -5 -5 -6 -6 -7 -7
-3 -3 -3 -3 -3 -3 -3 -3 -3 -3 -3 -3 -4 -4 -4 -4 -5 -5 -5 -5 -5 -6 -6 -7 -7 -7 -8
-3 -3 -3 -3 -4 -4 -4 -4 -4 -4 -4 -4 -4 -4 -4 -5 -5 -6 -6 -6 -6 -6 -7 -7 -8 -8 -8
-4 -4 -4 -4 -4 -4 -4 -5 -5 -4 -4 -5 -5 -5 -5 -5 -6 -6 -7 -7 -7 -7 -7 -8 -8 -9 -9
-4 -4 -4 -4 -5 -5 -5 -5 -5 -5 -5 -5 -5 -5 -6 -6 -6 -7 -7 -8 -8 -8 -8 -9 -9 -10 -10
-5 -5 -5 -5 -5 -6 -6 -6 -6 -6 -6 -6 -6 -6 -7 -7 -7 -8 -8 -8 -8 -8 -9 -9 -10 -10 -10
-5 -5 -5 -6 -6 -6 -6 -6 -6 -6 -6 -7 -7 -7 -7 -8 -8 -8 -9 -9 -9 -9 -9 -10 -10 -11 -11
-6 -6 -7 -7 -8 -8 -8 -7 -7 -7 -7 -7 -7 -8 -8 -9 -9 -9 -9 -10 -10 -10 -10 -11 -11 -12 -12

GFSFLT2_700_temp_093.txt.gz
Temp
1 1 1 1 1 1 1 1 1 1 1 1 1 1 1 1 0 0 0 -1 -1 -2 -1 -2 -3 -2 -2
1 1 1 1 1 1 1 0 0 0 0 0 0 0 0 -0 -0 -0 -0 -0 -1 -1 -2 -2 -1 -2 -2
1 1 1 1 1 0 0 -0 -0 -0 -0 -0 -0 -0 -0 -1 -1 -1 -0 -0 -1 -1 -1 -1 -1 -1 -2
1 1 1 0 0 -0 -0 -0 -0 -0 -1 -1 -1 -1 -1 -1 -1 -1 -1 -1 -1 -1 -1 -1 -1 -1 -1
0 0 0 -0 -0 -1 -1 -1 -1 -1 -1 -1 -1 -1 -1 -1 -1 -1 -1 -1 -1 -1 -1 -1 -1 -1 -1
-0 -0 -0 -1 -1 -1 -1 -1 -1 -1 -1 -1 -1 -1 -1 -1 -1 -1 -1 -1 -1 -1 -1 -2 -2 -2 -2
-1 -1 -1 -1 -1 -1 -1 -1 -1 -1 -1 -1 -1 -1 -1 -1 -1 -1 -2 -2 -2 -2 -2 -2 -2 -3 -3
-1 -1 -1 -1 -1 -2 -2 -2 -2 -2 -2 -2 -2 -2 -2 -2 -2 -2 -2 -2 -3 -3 -3 -3 -3 -3 -4
-2 -2 -2 -2 -2 -2 -2 -2 -3 -2 -2 -2 -2 -2 -3 -3 -3 -3 -3 -3 -4 -4 -4 -4 -4 -4 -5
-2 -2 -2 -2 -2 -3 -3 -3 -3 -3 -3 -3 -3 -3 -3 -3 -3 -3 -4 -4 -4 -5 -5 -5 -5 -5 -6
-2 -3 -3 -3 -3 -3 -3 -3 -3 -4 -4 -4 -4 -4 -4 -4 -4 -4 -4 -5 -5 -5 -5 -6 -6 -6 -7
-3 -3 -3 -3 -4 -4 -4 -4 -4 -4 -4 -4 -4 -4 -4 -5 -5 -5 -5 -5 -6 -6 -6 -6 -7 -7 -7
-4 -4 -4 -4 -4 -4 -4 -4 -5 -5 -5 -5 -5 -5 -5 -5 -6 -6 -6 -6 -6 -7 -7 -7 -7 -8 -8
-4 -4 -4 -4 -5 -5 -5 -5 -5 -5 -5 -5 -5 -6 -6 -6 -6 -6 -6 -7 -7 -7 -8 -8 -8 -8 -9
-4 -5 -5 -5 -5 -5 -5 -5 -6 -6 -6 -6 -6 -6 -6 -6 -7 -7 -7 -8 -8 -8 -8 -9 -9 -9 -9
-5 -5 -5 -5 -6 -6 -6 -6 -7 -7 -7 -7 -7 -7 -7 -7 -7 -8 -8 -8 -8 -9 -9 -9 -10 -10 -10
-5 -5 -6 -6 -6 -6 -7 -8 -8 -8 -8 -8 -8 -8 -7 -8 -8 -8 -9 -9 -9 -9 -9 -10 -10 -11 -11

GFSFLT2_700_temp_096.txt.gz
Temp
1 1 0 0 1 0 1 1 1 1 1 1 1 1 1 1 0 -0 -0 -1 -1 -1 -2 -1 -1 -1 -2
1 0 0 0 0 0 0 0 1 0 0 0 0 0 -0 -0 -0 -0 -0 -0 -0 -1 -1 -1 -1 -1 -1
0 0 0 0 0 0 0 0 -0 0 -0 -0 -0 -0 -0 -1 -1 -1 -1 -1 -1 -1 -1 -1 -1 -1 -1
-0 -0 -0 -0 0 -0 -0 -0 -0 -0 -0 -0 -1 -1 -1 -1 -1 -1 -1 -1 -1 -1 -1 -1 -1 -1 -1
-0 -0 -0 -0 -0 -1 -1 -1 -1 -1 -1 -1 -1 -1 -1 -1 -1 -1 -1 -1 -1 -1 -1 -1 -1 -1 -1
-1 -1 -1 -1 -1 -1 -1 -1 -1 -1 -1 -1 -1 -1 -1 -1 -1 -1 -1 -1 -1 -1 -1 -1 -2 -2 -2
-1 -1 -1 -1 -1 -1 -1 -1 -1 -1 -1 -1 -1 -2 -2 -2 -2 -2 -2 -2 -2 -2 -2 -2 -2 -2 -2
-1 -1 -1 -2 -2 -2 -2 -2 -2 -2 -2 -2 -2 -2 -2 -2 -2 -2 -2 -2 -2 -3 -3 -3 -3 -3 -3
-2 -2 -2 -2 -2 -2 -2 -2 -2 -2 -3 -3 -3 -3 -3 -3 -3 -3 -3 -3 -3 -3 -3 -4 -4 -4 -4
-2 -2 -2 -2 -3 -3 -3 -3 -3 -3 -3 -3 -3 -3 -3 -3 -3 -3 -3 -3 -4 -4 -4 -5 -5 -5 -5
-3 -3 -3 -3 -3 -3 -3 -4 -4 -4 -4 -4 -4 -3 -4 -4 -4 -4 -4 -4 -4 -4 -5 -5 -5 -6 -6
-3 -3 -3 -3 -3 -4 -4 -4 -4 -4 -4 -4 -4 -4 -4 -4 -4 -5 -5 -4 -5 -5 -6 -6 -6 -6 -6
-4 -4 -4 -4 -4 -4 -4 -4 -4 -4 -5 -5 -5 -5 -5 -5 -5 -5 -5 -5 -5 -6 -6 -7 -7 -7 -7
-4 -4 -4 -4 -4 -4 -5 -5 -5 -5 -5 -5 -6 -6 -5 -6 -6 -6 -6 -6 -6 -6 -7 -7 -7 -8 -8
-4 -5 -5 -5 -5 -5 -5 -5 -6 -6 -6 -6 -7 -7 -6 -6 -6 -6 -6 -6 -7 -7 -8 -8 -8 -8 -8
-5 -5 -5 -5 -5 -5 -6 -6 -6 -7 -7 -7 -8 -7 -7 -7 -7 -7 -7 -7 -7 -8 -8 -9 -9 -9 -9
-5 -5 -6 -6 -6 -6 -6 -7 -7 -8 -8 -8 -9 -8 -8 -8 -7 -8 -8 -7 -8 -8 -8 -9 -9 -10 -9

GFSFLT2_700_temp_099.txt.gz
Temp
1 1 0 0 0 0 -0 -0 -0 0 1 0 1 1 1 0 0 0 -0 -1 -2 -2 -3 -2 -3 -2 -2
0 -0 0 -0 -0 -0 -0 -0 -0 0 0 0 0 0 0 -0 -0 -0 -0 -0 -0 -1 -1 -1 -1 -1 -1
-0 -0 -0 -0 -1 -1 -1 -1 -0 -0 -0 -0 -0 -0 -0 -0 -0 -1 -1 -1 -1 -1 -1 -1 -1 -1 -1
-1 -1 -1 -1 -1 -1 -1 -1 -1 -1 -0 -1 -1 -1 -1 -1 -1 -1 -1 -1 -1 -1 -1 -1 -1 -1 -1
-1 -1 -1 -1 -1 -1 -1 -1 -1 -1 -1 -1 -1 -1 -1 -1 -1 -1 -1 -1 -1 -1 -1 -1 -1 -1 -1
-2 -2 -2 -1 -1 -1 -1 -1 -1 -1 -1 -1 -1 -1 -1 -1 -1 -1 -1 -1 -1 -1 -1 -1 -1 -1 -1
-2 -2 -2 -2 -1 -1 -2 -2 -2 -1 -2 -2 -2 -2 -2 -2 -2 -2 -2 -2 -2 -2 -2 -2 -2 -2 -2
-2 -2 -2 -2 -2 -2 -2 -2 -2 -2 -2 -2 -2 -2 -2 -2 -2 -2 -2 -2 -2 -2 -2 -3 -3 -3 -3
-2 -2 -2 -2 -2 -2 -2 -2 -2 -2 -3 -3 -3 -3 -3 -3 -3 -3 -3 -3 -3 -3 -3 -3 -3 -4 -4
-3 -3 -3 -3 -3 -3 -3 -3 -3 -3 -3 -3 -3 -3 -3 -3 -3 -3 -3 -3 -3 -3 -3 -4 -4 -4 -5
-2 -3 -3 -3 -3 -3 -3 -3 -3 -4 -3 -3 -4 -4 -4 -4 -4 -4 -4 -4 -4 -4 -4 -4 -4 -5 -5
-3 -3 -3 -3 -3 -4 -4 -4 -4 -4 -4 -4 -4 -4 -4 -4 -4 -4 -4 -5 -5 -5 -5 -5 -5 -6 -6
-4 -3 -4 -4 -4 -4 -4 -4 -4 -4 -4 -4 -4 -5 -5 -5 -5 -5 -5 -5 -5 -5 -5 -6 -6 -6 -7
-4 -4 -4 -4 -4 -4 -5 -5 -5 -5 -5 -5 -5 -5 -6 -6 -6 -6 -5 -5 -6 -6 -6 -6 -6 -7 -7
-4 -5 -5 -5 -5 -5 -5 -5 -5 -5 -5 -6 -6 -6 -6 -6 -7 -7 -6 -6 -6 -6 -6 -7 -7 -7 -8
-5 -5 -5 -5 -5 -5 -6 -6 -6 -6 -6 -6 -7 -7 -7 -7 -7 -7 -7 -7 -7 -7 -7 -7 -8 -8 -8
-5 -5 -6 -6 -6 -6 -6 -6 -6 -7 -7 -7 -7 -7 -7 -8 -7 -8 -8 -8 -8 -7 -8 -8 -8 -8 -8

GFSFLT2_700_temp_102.txt.gz
Temp
0 0 -0 -0 -0 -0 -1 -1 -1 -0 -0 0 0 0 0 0 0 -1 -1 -2 -2 -1 -2 -2 -3 -3 -3
0 -0 -0 -1 -1 -1 -1 -1 -1 -1 -1 -0 -0 -0 -0 -0 -0 -1 -1 -0 -1 -1 -2 -3 -2 -3 -3
-0 -1 -1 -1 -1 -1 -1 -1 -1 -1 -1 -1 -0 -0 -1 -1 -1 -1 -1 -1 -1 -1 -1 -1 -1 -1 -1
-0 -1 -1 -2 -2 -1 -1 -2 -2 -1 -1 -1 -1 -1 -1 -1 -1 -1 -1 -1 -1 -1 -1 -1 -1 -1 -1
-1 -1 -1 -2 -2 -2 -2 -1 -1 -1 -1 -1 -1 -1 -1 -1 -1 -1 -1 -1 -1 -1 -1 -1 -1 -1 -1
-2 -2 -2 -2 -2 -2 -2 -2 -2 -2 -2 -2 -2 -1 -1 -1 -1 -1 -1 -1 -1 -1 -1 -1 -1 -1 -1
-2 -2 -3 -3 -2 -2 -2 -2 -2 -2 -2 -2 -2 -2 -2 -2 -2 -2 -2 -2 -2 -1 -2 -2 -2 -2 -2
-3 -3 -3 -3 -3 -2 -2 -2 -2 -2 -2 -2 -2 -2 -2 -2 -2 -2 -2 -2 -2 -2 -2 -2 -2 -2 -2
-3 -4 -3 -3 -3 -3 -3 -3 -3 -3 -3 -3 -3 -3 -3 -3 -3 -3 -3 -3 -3 -3 -3 -3 -3 -3 -3
-4 -3 -3 -3 -3 -3 -3 -3 -3 -3 -3 -3 -3 -3 -3 -3 -3 -3 -3 -3 -3 -3 -3 -3 -3 -3 -4
-3 -3 -3 -3 -4 -3 -3 -3 -3 -3 -3 -3 -4 -4 -4 -4 -4 -4 -4 -4 -4 -4 -4 -4 -4 -4 -4
-4 -5 -4 -4 -4 -4 -4 -4 -4 -4 -3 -4 -4 -4 -4 -4 -4 -4 -4 -4 -4 -4 -4 -4 -5 -5 -5
-5 -5 -4 -5 -4 -4 -4 -4 -4 -4 -4 -5 -5 -5 -5 -5 -5 -5 -5 -5 -5 -5 -5 -5 -5 -5 -5
-5 -5 -4 -4 -5 -5 -5 -4 -5 -5 -5 -5 -5 -5 -5 -5 -5 -5 -5 -5 -6 -5 -6 -6 -6 -6 -6
-5 -5 -5 -5 -5 -5 -5 -5 -5 -5 -5 -5 -6 -5 -6 -6 -6 -6 -6 -7 -6 -6 -6 -6 -6 -6 -6
-5 -5 -5 -5 -5 -5 -5 -6 -6 -6 -6 -6 -6 -6 -6 -7 -7 -7 -7 -7 -7 -7 -7 -7 -7 -7 -7
-5 -5 -6 -6 -6 -6 -6 -6 -6 -6 -6 -6 -6 -6 -7 -7 -7 -7 -8 -8 -8 -7 -7 -7 -7 -8 -7

GFSFLT2_700_temp_105.txt.gz
Temp
1 1 1 0 -0 0 0 -0 0 -0 -1 -1 -0 -0 -0 0 0 0 -0 -1 -1 -2 -2 -2 -2 -3 -3
0 0 0 -0 -0 -0 -0 -0 -1 -1 -1 -1 -1 -1 -0 -0 -0 -0 -1 -2 -2 -2 -2 -2 -2 -2 -3
0 0 -0 -1 -1 -1 -1 -1 -1 -1 -1 -1 -1 -1 -1 -1 -1 -1 -1 -2 -2 -2 -2 -3 -2 -2 -2
0 -0 -0 -1 -1 -1 -1 -1 -2 -2 -2 -1 -1 -1 -1 -1 -1 -1 -2 -1 -1 -2 -2 -2 -2 -2 -2
-0 -0 -1 -1 -2 -2 -2 -2 -2 -2 -2 -2 -2 -1 -2 -2 -2 -2 -2 -2 -2 -2 -2 -2 -2 -2 -2
-0 -1 -1 -2 -2 -2 -2 -3 -3 -2 -2 -2 -2 -2 -2 -2 -2 -2 -2 -2 -2 -2 -2 -2 -2 -1 -1
-1 -2 -2 -2 -2 -3 -3 -3 -2 -2 -2 -2 -2 -2 -2 -2 -2 -2 -2 -2 -2 -2 -2 -2 -2 -2 -2
-2 -2 -3 -3 -3 -3 -3 -3 -3 -3 -3 -3 -3 -3 -3 -3 -2 -2 -2 -2 -2 -2 -2 -2 -2 -2 -2
-3 -3 -3 -4 -4 -3 -3 -3 -3 -3 -3 -3 -3 -3 -3 -3 -3 -3 -3 -3 -3 -3 -3 -3 -3 -3 -3
-4 -4 -4 -4 -4 -3 -3 -3 -3 -3 -3 -3 -4 -3 -3 -3 -3 -3 -3 -3 -3 -3 -3 -3 -3 -3 -3
-4 -4 -4 -4 -4 -4 -4 -4 -4 -4 -4 -5 -4 -4 -4 -4 -4 -4 -4 -4 -4 -4 -4 -4 -4 -4 -4
-4 -4 -4 -4 -4 -4 -4 -4 -4 -4 -4 -4 -5 -6 -5 -5 -4 -4 -4 -4 -4 -4 -4 -4 -4 -4 -4
-5 -5 -5 -5 -5 -5 -5 -4 -4 -4 -5 -6 -5 -6 -6 -7 -5 -5 -5 -5 -5 -5 -5 -5 -5 -5 -5
-5 -5 -5 -5 -5 -6 -5 -5 -5 -5 -5 -5 -5 -5 -5 -5 -5 -5 -5 -5 -5 -5 -5 -6 -6 -6 -6
-6 -5 -5 -5 -5 -5 -5 -5 -5 -5 -5 -5 -5 -5 -5 -6 -6 -6 -6 -6 -6 -6 -6 -6 -6 -6 -6
-6 -6 -6 -6 -5 -5 -6 -6 -6 -5 -6 -6 -6 -6 -6 -6 -6 -6 -6 -7 -7 -7 -7 -7 -7 -7 -7
-6 -6 -6 -6 -6 -5 -5 -5 -5 -6 -6 -6 -6 -6 -6 -7 -7 -7 -7 -7 -7 -8 -8 -7 -8 -7 -7

GFSFLT2_700_temp_108.txt.gz
Temp
1 1 1 0 0 0 0 -0 -0 -0 -1 -1 -1 -0 -1 -0 -0 -0 -0 -1 -1 -1 -1 -1 -1 -2 -2
1 1 1 0 0 -0 -1 -1 -0 -1 -1 -1 -1 -1 -1 -1 -1 -0 -1 -1 -1 -1 -1 -2 -2 -2 -3
1 0 0 0 -0 -1 -1 -1 -1 -1 -2 -2 -2 -2 -1 -1 -1 -2 -2 -2 -2 -2 -2 -2 -2 -3 -3
0 0 0 -0 -1 -1 -1 -1 -1 -2 -2 -2 -2 -2 -2 -2 -2 -2 -2 -2 -3 -3 -2 -3 -2 -2 -3
0 0 -0 -0 -1 -1 -1 -2 -2 -2 -2 -3 -3 -2 -2 -2 -2 -2 -2 -2 -2 -2 -2 -3 -3 -3 -3
0 0 -0 -1 -1 -2 -2 -2 -2 -3 -3 -3 -2 -2 -2 -2 -2 -2 -2 -2 -2 -2 -3 -2 -2 -2 -2
-0 -0 -1 -2 -2 -3 -3 -3 -3 -3 -3 -3 -3 -2 -2 -2 -2 -2 -2 -2 -2 -2 -3 -2 -2 -2 -2
-1 -1 -2 -2 -3 -3 -3 -3 -4 -3 -3 -3 -3 -3 -2 -2 -3 -3 -3 -3 -2 -2 -2 -2 -2 -2 -2
-2 -2 -2 -3 -3 -4 -4 -4 -3 -3 -3 -3 -3 -3 -3 -3 -3 -3 -3 -3 -3 -3 -3 -3 -3 -3 -3
-2 -3 -3 -3 -4 -4 -4 -4 -4 -3 -3 -3 -3 -3 -4 -4 -3 -3 -3 -3 -3 -3 -3 -3 -3 -3 -3
-3 -3 -4 -4 -4 -4 -4 -4 -4 -4 -4 -4 -4 -4 -5 -5 -5 -4 -4 -4 -4 -4 -4 -4 -4 -4 -4
-4 -4 -4 -4 -4 -4 -4 -4 -4 -4 -4 -4 -5 -5 -5 -6 -6 -5 -5 -4 -4 -4 -4 -4 -4 -4 -4
-4 -5 -5 -5 -5 -5 -5 -5 -4 -5 -4 -4 -5 -5 -5 -6 -6 -6 -6 -6 -5 -5 -5 -4 -4 -5 -5
-5 -5 -5 -5 -5 -5 -5 -5 -5 -5 -5 -5 -5 -5 -5 -6 -6 -6 -7 -6 -6 -5 -5 -5 -5 -5 -5
-6 -6 -6 -6 -5 -5 -6 -6 -7 -6 -5 -5 -5 -5 -6 -6 -6 -6 -6 -6 -6 -6 -6 -6 -6 -6 -6
-7 -7 -6 -6 -6 -6 -6 -6 -6 -6 -6 -6 -6 -6 -6 -6 -6 -6 -6 -6 -6 -6 -6 -6 -6 -6 -6
-7 -7 -7 -6 -7 -7 -7 -7 -6 -6 -6 -6 -6 -6 -6 -6 -7 -6 -6 -6 -7 -7 -7 -7 -7 -7 -7

GFSFLT2_700_temp_114.txt.gz
Temp
-0 0 0 0 0 0 0 -0 0 0 0 0 1 0 -0 -0 -1 -0 0 0 -0 0 1 -0 -1 -1 -2
1 1 1 0 0 0 0 0 0 0 0 0 -0 0 -0 -1 -1 -1 -1 -1 -1 -1 -1 -1 -1 -2 -1
1 0 1 0 0 0 0 0 0 0 0 0 -0 -0 -1 -1 -2 -2 -1 -1 -1 -2 -1 -1 -1 -2 -1
1 1 0 0 0 -0 -0 -0 -0 -0 -0 -0 -1 -1 -1 -2 -2 -3 -3 -3 -3 -2 -2 -2 -2 -2 -2
1 1 1 1 0 -0 -0 -0 -0 -0 -1 -1 -1 -2 -2 -2 -3 -3 -3 -3 -4 -3 -3 -3 -3 -2 -2
1 1 0 0 0 -0 -0 -1 -1 -1 -1 -2 -2 -2 -3 -3 -3 -3 -3 -4 -3 -2 -3 -3 -3 -3 -4
-0 -0 -0 -0 -0 -0 -0 -1 -1 -2 -2 -2 -2 -3 -3 -3 -3 -3 -3 -3 -4 -4 -3 -3 -3 -3 -3
-1 -1 -0 -1 -1 -1 -1 -1 -2 -3 -3 -3 -3 -4 -3 -3 -3 -3 -3 -3 -3 -3 -3 -3 -3 -3 -3
-1 -1 -1 -1 -1 -2 -1 -2 -3 -4 -4 -4 -3 -4 -3 -3 -3 -3 -3 -3 -3 -3 -2 -2 -2 -2 -3
-2 -2 -2 -2 -2 -2 -2 -3 -4 -4 -4 -4 -4 -4 -4 -3 -3 -3 -3 -3 -3 -3 -3 -3 -3 -3 -3
-2 -2 -3 -3 -3 -3 -3 -4 -5 -5 -4 -4 -4 -4 -4 -4 -4 -4 -4 -4 -4 -3 -4 -4 -4 -4 -4
-3 -3 -4 -4 -4 -4 -4 -4 -5 -5 -5 -4 -4 -4 -4 -4 -5 -5 -5 -5 -5 -5 -5 -5 -4 -4 -4
-4 -5 -5 -4 -4 -5 -5 -5 -5 -5 -5 -5 -5 -5 -5 -5 -5 -5 -5 -6 -6 -7 -6 -6 -6 -6 -5
-5 -5 -5 -5 -5 -5 -5 -5 -5 -5 -5 -5 -5 -5 -5 -5 -6 -6 -6 -6 -7 -7 -7 -7 -7 -7 -6
-5 -6 -6 -6 -6 -6 -6 -6 -6 -6 -6 -6 -6 -6 -6 -7 -7 -6 -6 -6 -7 -6 -6 -6 -7 -7 -7
-6 -6 -6 -7 -7 -6 -6 -6 -6 -6 -6 -7 -7 -7 -8 -7 -6 -6 -6 -6 -6 -6 -6 -6 -6 -6 -6
-6 -6 -7 -7 -7 -7 -7 -7 -7 -6 -7 -7 -8 -8 -8 -7 -7 -6 -6 -6 -6 -6 -6 -6 -6 -6 -6

GFSFLT2_700_temp_117.txt.gz
Temp
0 0 0 0 0 0 0 0 0 1 1 1 1 1 1 1 1 0 1 1 1 1 1 0 0 0 -0
0 0 0 0 0 1 1 1 0 1 1 1 1 0 1 1 0 -0 1 0 0 -0 0 -0 -1 -1 -1
-0 0 0 0 0 0 0 0 0 1 1 1 1 0 -0 -0 -0 -1 -0 -1 -1 -1 -1 -1 -1 -2 -2
0 0 0 0 1 0 0 0 0 0 0 1 0 -0 -1 -1 -1 -1 -1 -2 -3 -2 -2 -2 -2 -3 -2
-0 0 0 0 0 -0 0 0 -0 -0 0 -0 -0 -0 -1 -1 -2 -2 -2 -2 -3 -3 -3 -3 -2 -2 -3
-0 0 -0 -0 -0 -0 -0 -0 -0 -0 -0 -1 -1 -1 -1 -2 -2 -3 -3 -4 -4 -4 -4 -3 -3 -3 -3
-0 -0 -0 -0 -0 -0 -0 -1 -1 -1 -1 -1 -1 -2 -2 -2 -3 -3 -3 -3 -4 -5 -4 -3 -3 -4 -4
-1 -1 -1 -1 -1 -1 -0 -0 -1 -1 -2 -2 -2 -2 -3 -3 -3 -3 -3 -3 -4 -4 -4 -3 -3 -4 -4
-1 -2 -2 -1 -1 -1 -1 -1 -2 -2 -3 -3 -3 -3 -3 -3 -3 -3 -3 -3 -3 -3 -4 -4 -4 -4 -3
-2 -2 -2 -2 -2 -2 -2 -2 -3 -3 -3 -4 -4 -4 -4 -3 -3 -3 -3 -3 -3 -4 -3 -3 -3 -4 -3
-2 -2 -2 -3 -3 -3 -3 -3 -3 -4 -4 -4 -4 -4 -4 -4 -4 -4 -4 -4 -4 -4 -3 -4 -4 -4 -4
-2 -2 -2 -3 -3 -4 -4 -4 -4 -4 -4 -4 -4 -4 -4 -4 -4 -4 -4 -4 -5 -5 -4 -4 -4 -4 -4
-3 -3 -3 -3 -4 -4 -4 -4 -4 -4 -4 -5 -5 -5 -5 -5 -5 -5 -5 -5 -6 -6 -6 -6 -6 -5 -6
-3 -3 -3 -4 -4 -5 -5 -5 -5 -5 -5 -5 -5 -5 -5 -5 -6 -7 -6 -6 -6 -7 -8 -8 -7 -7 -7
-4 -4 -4 -5 -5 -5 -5 -6 -5 -5 -5 -5 -5 -5 -6 -6 -7 -7 -7 -7 -7 -7 -8 -7 -8 -7 -7
-4 -4 -5 -5 -5 -6 -6 -7 -6 -6 -6 -6 -6 -6 -7 -7 -8 -8 -8 -8 -8 -8 -7 -8 -8 -7 -7
-5 -5 -6 -6 -6 -6 -7 -7 -7 -7 -7 -7 -7 -7 -7 -8 -8 -8 -8 -7 -7 -7 -7 -7 -7 -7 -7

GFSFLT2_700_temp_120.txt.gz
Temp
1 1 1 1 1 1 1 1 1 1 1 1 1 1 1 1 1 1 1 1 1 2 1 1 1 1 0
0 0 0 0 1 1 1 1 1 1 1 1 1 1 1 1 1 0 0 1 1 1 0 0 0 0 -0
0 0 0 0 1 1 1 1 1 1 1 1 1 1 1 1 1 0 -0 -1 0 -0 -1 -0 -0 -0 -1
0 0 0 0 0 0 0 1 0 0 0 1 1 1 0 1 0 -0 -1 -2 -1 -1 -2 -2 -1 -1 -2
-0 -0 -0 0 0 0 0 0 0 1 0 0 0 0 0 0 -0 -1 -1 -2 -4 -3 -2 -3 -2 -3 -2
-0 -0 -0 -0 0 0 0 0 -0 0 0 0 0 -0 -0 -0 -1 -2 -3 -3 -4 -4 -3 -3 -3 -3 -3
-1 -1 -0 -0 -0 -0 -0 -0 -0 -0 -0 -1 -1 -1 -1 -1 -2 -2 -3 -3 -3 -4 -4 -3 -4 -4 -4
-1 -1 -1 -1 -1 -1 -1 -1 -1 -1 -1 -1 -1 -1 -2 -2 -3 -3 -3 -3 -4 -5 -5 -4 -5 -5 -4
-1 -1 -1 -1 -1 -1 -1 -1 -1 -1 -2 -2 -2 -2 -2 -3 -3 -3 -3 -3 -3 -4 -4 -4 -5 -4 -5
-2 -1 -2 -2 -2 -2 -2 -2 -2 -2 -3 -3 -3 -3 -3 -3 -3 -3 -3 -3 -4 -4 -3 -4 -4 -4 -4
-2 -2 -2 -2 -2 -2 -3 -3 -3 -3 -3 -4 -4 -4 -4 -4 -4 -4 -3 -3 -3 -3 -3 -4 -4 -4 -4
-2 -2 -2 -2 -3 -3 -3 -3 -3 -4 -4 -4 -4 -4 -4 -4 -4 -4 -4 -4 -4 -4 -4 -4 -4 -4 -4
-3 -2 -3 -3 -3 -3 -4 -4 -4 -4 -4 -4 -4 -4 -4 -4 -4 -4 -5 -5 -5 -5 -5 -5 -6 -5 -5
-3 -3 -3 -3 -3 -4 -4 -4 -5 -5 -5 -5 -4 -5 -5 -5 -5 -5 -6 -6 -6 -6 -6 -6 -7 -7 -7
-3 -4 -4 -4 -4 -4 -5 -5 -5 -5 -5 -5 -5 -5 -5 -6 -6 -6 -6 -6 -7 -7 -7 -7 -8 -8 -8
-5 -5 -5 -5 -5 -4 -5 -5 -6 -6 -6 -6 -6 -6 -6 -6 -6 -6 -7 -7 -7 -7 -8 -8 -8 -8 -8
-5 -5 -5 -5 -5 -5 -5 -6 -6 -6 -7 -7 -7 -7 -7 -7 -7 -7 -7 -8 -8 -8 -8 -8 -8 -7 -7

GFSFLT2_700_temp_123.txt.gz
Temp
1 0 1 1 1 1 1 1 1 1 2 2 1 2 2 2 1 1 1 1 2 1 2 2 1 1 1
0 0 0 1 1 1 1 1 1 1 1 2 1 1 1 1 1 1 1 1 1 1 1 1 1 0 0
-0 0 1 1 1 0 0 1 1 1 1 1 1 1 1 1 1 1 1 0 1 1 1 0 -0 -1 -1
0 0 0 0 0 0 0 0 1 1 1 1 1 1 1 1 0 0 0 -0 -0 0 -1 -1 -2 -2 -2
-0 -0 0 0 0 -0 0 0 0 0 0 0 0 0 0 0 0 -0 -1 -1 -2 -4 -3 -3 -2 -2 -3
-0 -0 0 -0 -0 -0 0 0 0 -0 0 0 0 0 0 0 -0 -1 -1 -2 -3 -3 -4 -4 -3 -3 -3
-1 -1 -1 -1 -1 -0 -0 -0 -0 -0 -0 -0 -0 -0 -0 -1 -1 -1 -2 -2 -3 -4 -4 -4 -4 -4 -3
-1 -1 -1 -1 -1 -1 -1 -1 -1 -1 -1 -1 -1 -0 -1 -1 -2 -2 -2 -3 -4 -5 -5 -5 -5 -4 -5
-2 -2 -1 -1 -1 -1 -1 -1 -1 -2 -1 -1 -1 -1 -2 -2 -3 -3 -3 -3 -4 -4 -5 -4 -5 -5 -5
-2 -2 -2 -2 -2 -2 -2 -2 -2 -2 -2 -2 -2 -2 -3 -3 -4 -3 -3 -4 -4 -4 -4 -4 -5 -4 -5
-2 -2 -2 -2 -2 -2 -2 -2 -2 -3 -3 -3 -3 -3 -3 -4 -4 -4 -4 -4 -4 -4 -4 -4 -4 -4 -4
-3 -3 -3 -2 -2 -2 -2 -2 -3 -3 -3 -3 -4 -4 -4 -4 -4 -4 -4 -4 -4 -4 -4 -4 -4 -4 -4
-4 -3 -3 -3 -3 -3 -3 -3 -3 -4 -4 -4 -4 -4 -4 -5 -5 -4 -5 -5 -4 -4 -5 -5 -5 -5 -5
-4 -3 -3 -3 -3 -3 -3 -3 -4 -4 -4 -4 -5 -5 -5 -5 -5 -5 -5 -5 -5 -5 -5 -6 -5 -6 -6
-4 -4 -4 -3 -4 -4 -4 -4 -4 -4 -5 -5 -5 -5 -5 -5 -5 -6 -6 -6 -6 -6 -6 -6 -7 -7 -7
-5 -4 -4 -4 -4 -5 -5 -5 -5 -5 -5 -6 -6 -6 -6 -6 -6 -6 -6 -6 -6 -7 -7 -7 -7 -7 -7
-5 -5 -4 -5 -5 -5 -5 -5 -5 -5 -6 -6 -7 -6 -7 -7 -6 -7 -7 -7 -7 -7 -8 -7 -8 -8 -8

GFSFLT2_700_temp_126.txt.gz
Temp
1 0 -0 0 0 0 1 1 1 1 1 1 2 2 2 2 2 2 2 2 2 2 2 2 2 2 1
0 0 0 -0 -0 -0 1 1 1 1 1 2 2 2 2 2 2 2 1 1 1 1 1 1 1 1 1
1 -0 -0 -1 -1 0 0 0 1 1 1 1 2 2 2 1 1 1 1 1 1 1 0 0 -0 -0 -0
-0 -1 -1 -1 0 0 0 0 0 1 1 1 1 1 1 1 1 0 0 0 0 0 0 -1 -1 -1 -1
-0 -0 -1 -0 -0 0 0 -0 0 1 1 1 1 1 1 1 0 0 -0 -0 -0 -1 -2 -4 -3 -2 -2
-1 -1 -1 -1 -0 -0 -0 -0 0 0 0 0 0 0 0 -0 -0 -0 -1 -1 -1 -2 -5 -4 -4 -5 -4
-1 -1 -1 -1 -1 -1 -0 -0 -0 -0 -0 -1 -0 -1 -0 -0 -1 -1 -1 -2 -2 -3 -5 -4 -4 -4 -3
-1 -2 -1 -1 -1 -1 -1 -1 -1 -1 -1 -1 -1 -1 -1 -1 -1 -1 -2 -2 -3 -3 -5 -5 -5 -4 -5
-3 -2 -2 -2 -2 -1 -1 -1 -1 -1 -1 -1 -1 -2 -2 -2 -2 -2 -2 -2 -3 -4 -5 -5 -5 -5 -5
-2 -2 -2 -2 -2 -2 -2 -2 -2 -2 -2 -2 -2 -2 -2 -2 -2 -3 -3 -3 -4 -4 -5 -5 -6 -5 -5
-3 -3 -3 -3 -3 -2 -2 -2 -2 -2 -2 -2 -3 -3 -3 -3 -3 -3 -3 -3 -4 -4 -4 -4 -4 -4 -4
-3 -3 -3 -3 -3 -3 -3 -2 -2 -2 -3 -3 -3 -3 -4 -3 -3 -4 -4 -4 -4 -4 -4 -4 -4 -4 -4
-4 -3 -3 -4 -3 -3 -3 -3 -3 -3 -3 -4 -4 -4 -4 -4 -4 -4 -4 -4 -4 -4 -4 -4 -5 -5 -5
-4 -4 -4 -4 -4 -3 -3 -3 -3 -4 -4 -4 -4 -4 -4 -4 -4 -4 -5 -5 -5 -5 -5 -5 -5 -5 -6
-4 -4 -4 -5 -4 -4 -4 -4 -4 -4 -4 -4 -5 -5 -5 -5 -5 -5 -5 -5 -6 -6 -6 -6 -6 -6 -7
-5 -5 -5 -5 -5 -5 -4 -4 -5 -5 -5 -5 -5 -5 -5 -5 -5 -6 -6 -6 -6 -6 -7 -7 -7 -7 -7
-5 -5 -5 -5 -5 -5 -5 -5 -5 -5 -5 -5 -5 -6 -6 -6 -6 -6 -6 -6 -7 -7 -8 -8 -8 -8 -8

GFSFLT2_700_temp_129.txt.gz
Temp
1 1 2 1 0 -0 -1 -0 0 1 1 2 1 1 1 2 2 2 2 2 2 2 2 2 2 2 2
1 1 0 1 -0 -1 -0 -0 0 1 1 1 1 1 2 2 2 2 1 2 2 2 1 1 1 1 1
1 0 0 0 -0 -1 -1 -1 0 0 0 1 1 1 2 2 2 1 1 1 1 1 1 1 1 1 1
1 -0 -0 -0 -1 -1 -2 -1 -0 0 0 1 1 1 1 1 1 1 1 1 1 1 1 0 0 0 -0
0 -0 -1 -1 -1 -2 -1 -1 -0 -0 0 1 1 1 1 1 1 0 1 1 0 0 -0 -0 -0 -1 -1
-1 -1 -1 -2 -2 -2 -1 -1 -0 -0 0 0 0 1 0 0 0 -0 0 -0 -0 -1 -1 -2 -2 -2 -2
-1 -2 -1 -3 -2 -3 -2 -1 -1 -1 -0 -0 -0 -0 -0 -0 -0 -1 -1 -1 -1 -1 -2 -3 -4 -3 -3
-1 -2 -1 -2 -2 -3 -2 -1 -1 -1 -1 -1 -1 -1 -1 -1 -1 -1 -1 -2 -2 -3 -3 -4 -4 -4 -3
-2 -2 -2 -2 -3 -3 -3 -2 -1 -1 -1 -1 -1 -1 -1 -1 -1 -2 -2 -2 -3 -3 -4 -6 -5 -5 -5
-3 -3 -3 -3 -3 -3 -2 -2 -2 -2 -2 -2 -2 -2 -2 -2 -2 -2 -3 -3 -3 -4 -4 -5 -5 -5 -5
-3 -4 -4 -4 -4 -3 -3 -2 -2 -2 -2 -2 -2 -2 -2 -2 -3 -3 -3 -3 -3 -4 -5 -5 -5 -5 -5
-3 -4 -4 -4 -4 -4 -4 -3 -3 -3 -3 -2 -3 -3 -3 -3 -3 -3 -3 -4 -4 -4 -4 -4 -5 -5 -5
-4 -4 -4 -4 -4 -4 -4 -4 -3 -3 -3 -3 -3 -3 -4 -4 -3 -4 -4 -4 -4 -4 -4 -4 -4 -4 -5
-4 -4 -4 -4 -5 -4 -4 -4 -4 -4 -3 -3 -3 -4 -4 -4 -4 -4 -4 -5 -5 -4 -4 -4 -5 -5 -5
-4 -4 -4 -4 -5 -4 -4 -4 -4 -4 -4 -4 -4 -4 -4 -4 -4 -5 -5 -5 -5 -5 -5 -5 -6 -6 -6
-4 -5 -5 -5 -5 -5 -5 -5 -5 -5 -5 -5 -5 -5 -5 -5 -5 -5 -5 -5 -5 -6 -6 -6 -6 -6 -7
-5 -5 -5 -5 -5 -5 -5 -5 -5 -5 -5 -5 -5 -5 -5 -5 -5 -6 -6 -6 -6 -6 -7 -7 -7 -7 -7